WA4BPS Weather Reports


time (UTC)temp
F
wind
direction
speed
knots
gust
knots
rain 1hr
in
rain 24hr
in
rain mn
in
humidity
%
barometer
mb
20260905201936 91 360 6.1 8.7 0.00 0.00 0.00 49 1010.5
20260905201834 91 339 5.2 8.7 0.00 0.00 0.00 50 1010.5
20260905201742 91 349 1.7 7.0 0.00 0.00 0.00 49 1010.5
20260905201650 91 352 1.7 7.0 0.00 0.00 0.00 50 1010.5
20260905201548 91 316 3.5 7.0 0.00 0.00 0.00 50 1010.5
20260905201447 91 346 3.5 7.0 0.00 0.00 0.00 50 1010.5
20260905201404 91 333 2.6 7.0 0.00 0.00 0.00 49 1010.5
20260905201242 91 1 0.9 4.3 0.00 0.00 0.00 49 1010.8
20260905201124 91 1 1.7 4.3 0.00 0.00 0.00 49 1010.8
20260905201041 91 330 0.0 4.3 0.00 0.00 0.00 49 1010.8
20260905200940 91 329 0.0 4.3 0.00 0.00 0.00 49 1010.8
20260905200840 91 330 0.0 6.1 0.00 0.00 0.00 48 1010.8
20260905200738 91 328 1.7 7.8 0.00 0.00 0.00 49 1010.8
20260905200637 91 330 1.7 7.8 0.00 0.00 0.00 48 1010.8
20260905200535 91 329 0.0 7.8 0.00 0.00 0.00 48 1010.8
20260905200437 91 329 0.9 7.8 0.00 0.00 0.00 47 1010.8
20260905200338 91 328 1.7 7.8 0.00 0.00 0.00 49 1010.8
20260905200257 91 328 1.7 10.4 0.00 0.00 0.00 48 1010.8
20260905200228 91 328 2.6 10.4 0.00 0.00 0.00 47 1010.8
20260905200042 91 330 4.3 10.4 0.00 0.00 0.00 47 1010.8
20260905195941 91 330 6.1 10.4 0.00 0.00 0.00 48 1010.8
20260905195840 91 329 3.5 10.4 0.00 0.00 0.00 49 1010.8
20260905195739 91 325 2.6 10.4 0.00 0.00 0.00 49 1010.9
20260905195658 91 325 3.5 10.4 0.00 0.00 0.00 48 1010.9
20260905195603 91 313 4.3 10.4 0.00 0.00 0.00 48 1010.9
20260905195500 91 337 7.0 10.4 0.00 0.00 0.00 48 1010.9
20260905195400 91 329 7.0 10.4 0.00 0.00 0.00 50 1010.9
20260905195237 91 340 6.1 8.7 0.00 0.00 0.00 50 1010.9
20260905195135 91 312 3.5 8.7 0.00 0.00 0.00 49 1010.9
20260905195034 91 25 3.5 7.0 0.00 0.00 0.00 49 1010.9
20260905194953 91 360 0.9 6.1 0.00 0.00 0.00 48 1010.9
20260905194830 91 360 1.7 6.1 0.00 0.00 0.00 48 1010.9
20260905194728 91 360 2.6 6.1 0.00 0.00 0.00 50 1010.9
20260905194702 91 360 2.6 6.1 0.00 0.00 0.00 49 1010.9
20260905194540 91 326 2.6 6.1 0.00 0.00 0.00 48 1010.9
20260905194439 91 13 2.6 6.1 0.00 0.00 0.00 49 1010.9
20260905194337 91 4 2.6 6.1 0.00 0.00 0.00 49 1010.9
20260905194236 91 325 3.5 6.1 0.00 0.00 0.00 49 1011.0
20260905194134 90 360 3.5 5.2 0.00 0.00 0.00 49 1011.0
20260905194034 90 8 0.9 2.6 0.00 0.00 0.00 48 1011.0
20260905193937 90 8 0.9 2.6 0.00 0.00 0.00 49 1011.0
20260905193837 90 10 0.0 5.2 0.00 0.00 0.00 48 1011.0
20260905193735 90 14 0.0 6.1 0.00 0.00 0.00 47 1011.0
20260905193633 90 14 0.9 6.1 0.00 0.00 0.00 47 1011.0
20260905193532 90 13 0.0 6.1 0.00 0.00 0.00 47 1011.0
20260905193430 90 14 0.9 6.1 0.00 0.00 0.00 48 1011.0
20260905193333 90 11 0.9 6.1 0.00 0.00 0.00 47 1011.0
20260905193252 90 13 1.7 6.1 0.00 0.00 0.00 47 1011.0
20260905193224 90 16 0.9 6.1 0.00 0.00 0.00 49 1011.0
20260905193101 90 16 1.7 6.1 0.00 0.00 0.00 49 1011.0
20260905192938 90 17 2.6 6.1 0.00 0.00 0.00 50 1011.0
20260905192838 90 24 5.2 6.1 0.00 0.00 0.00 49 1011.0
20260905192758 90 359 5.2 6.1 0.00 0.00 0.00 48 1011.2
20260905192654 90 347 4.3 6.1 0.00 0.00 0.00 49 1011.2
20260905192532 90 319 1.7 7.0 0.00 0.00 0.00 48 1011.2
20260905192435 90 320 3.5 7.0 0.00 0.00 0.00 48 1011.2
20260905192334 90 333 4.3 7.0 0.00 0.00 0.00 48 1011.2
20260905192233 90 328 2.6 7.0 0.00 0.00 0.00 48 1011.2
20260905192151 90 322 0.9 7.0 0.00 0.00 0.00 49 1011.2
20260905192048 90 322 1.7 7.0 0.00 0.00 0.00 50 1011.2
20260905191926 90 320 4.3 7.0 0.00 0.00 0.00 48 1011.2
20260905191824 90 315 3.5 7.0 0.00 0.00 0.00 48 1011.2
20260905191735 90 336 6.1 7.0 0.00 0.00 0.00 48 1011.2
20260905191647 90 340 2.6 7.0 0.00 0.00 0.00 50 1011.2
20260905191525 90 346 4.3 7.0 0.00 0.00 0.00 49 1011.2
20260905191425 90 27 2.6 7.0 0.00 0.00 0.00 50 1011.2
20260905191343 90 30 2.6 7.0 0.00 0.00 0.00 50 1011.2
20260905191240 90 315 0.9 7.0 0.00 0.00 0.00 50 1011.5
20260905191139 90 318 2.6 7.0 0.00 0.00 0.00 50 1011.5
20260905191037 90 322 2.6 7.0 0.00 0.00 0.00 49 1011.5
20260905190956 90 322 5.2 7.0 0.00 0.00 0.00 49 1011.5
20260905190837 90 347 6.1 7.0 0.00 0.00 0.00 50 1011.5
20260905190737 90 336 6.1 7.0 0.00 0.00 0.00 53 1011.5
20260905190635 90 3 4.3 6.1 0.00 0.00 0.00 52 1011.5
20260905190533 90 16 3.5 6.1 0.00 0.00 0.00 51 1011.5
20260905190432 90 359 2.6 5.2 0.00 0.00 0.00 51 1011.5
20260905190349 90 359 0.0 5.2 0.00 0.00 0.00 51 1011.5
20260905190258 90 359 1.7 7.0 0.00 0.00 0.00 51 1011.5
20260905190148 90 359 0.0 7.0 0.00 0.00 0.00 51 1011.5
20260905190025 90 357 0.0 7.0 0.00 0.00 0.00 50 1011.5
20260905185947 90 357 1.7 7.0 0.00 0.00 0.00 49 1011.5
20260905185843 90 357 2.6 7.0 0.00 0.00 0.00 51 1011.5
20260905185802 90 359 1.7 7.0 0.00 0.00 0.00 50 1011.5
20260905185639 90 347 0.9 7.0 0.00 0.00 0.00 51 1011.5
20260905185537 90 347 1.7 7.0 0.00 0.00 0.00 51 1011.5
20260905185456 90 347 4.3 7.0 0.00 0.00 0.00 51 1011.5
20260905185333 90 356 4.3 7.0 0.00 0.00 0.00 50 1011.5
20260905185232 90 13 1.7 7.0 0.00 0.00 0.00 50 1011.5
20260905185134 90 11 1.7 7.0 0.00 0.00 0.00 49 1011.5
20260905185032 90 13 2.6 7.0 0.00 0.00 0.00 49 1011.5
20260905184930 90 14 4.3 7.0 0.00 0.00 0.00 51 1011.5
20260905184829 90 360 1.7 7.0 0.00 0.00 0.00 51 1011.5
20260905184748 90 346 1.7 7.0 0.00 0.00 0.00 50 1011.5
20260905184656 90 344 1.7 7.0 0.00 0.00 0.00 50 1011.5
20260905184534 91 344 1.7 7.0 0.00 0.00 0.00 50 1011.5
20260905184432 91 343 4.3 7.0 0.00 0.00 0.00 49 1011.5
20260905184336 91 329 3.5 7.0 0.00 0.00 0.00 51 1011.5
20260905184234 91 350 0.9 4.3 0.00 0.00 0.00 51 1011.7
20260905184133 91 350 0.9 4.3 0.00 0.00 0.00 50 1011.7
20260905184031 91 352 0.0 5.2 0.00 0.00 0.00 51 1011.7
20260905183929 91 352 0.0 5.2 0.00 0.00 0.00 51 1011.7
20260905183848 91 352 1.7 5.2 0.00 0.00 0.00 51 1011.7
20260905183746 91 350 0.0 7.0 0.00 0.00 0.00 50 1011.7
20260905183628 91 350 0.9 7.0 0.00 0.00 0.00 49 1011.7
20260905183525 91 354 1.7 7.0 0.00 0.00 0.00 50 1011.7
20260905183424 91 354 2.6 7.0 0.00 0.00 0.00 50 1011.7
20260905183343 91 354 1.7 9.6 0.00 0.00 0.00 50 1011.7
20260905183242 91 352 2.6 9.6 0.00 0.00 0.00 49 1011.7
20260905183213 91 352 3.5 9.6 0.00 0.00 0.00 50 1011.7
20260905183028 91 337 3.5 9.6 0.00 0.00 0.00 51 1011.7
20260905182947 91 343 5.2 9.6 0.00 0.00 0.00 50 1011.7
20260905182827 91 356 3.5 9.6 0.00 0.00 0.00 49 1011.7
20260905182727 91 28 0.0 9.6 0.00 0.00 0.00 49 1012.0
20260905182647 91 31 1.7 9.6 0.00 0.00 0.00 49 1012.0
20260905182543 91 30 5.2 9.6 0.00 0.00 0.00 49 1012.0
20260905182442 91 30 6.1 9.6 0.00 0.00 0.00 48 1012.0
20260905182341 91 325 5.2 7.8 0.00 0.00 0.00 52 1012.0
20260905182238 91 328 2.6 6.1 0.00 0.00 0.00 52 1012.0
20260905182137 91 353 2.6 6.1 0.00 0.00 0.00 52 1012.0
20260905182040 91 350 2.6 6.1 0.00 0.00 0.00 52 1012.0
20260905181939 91 349 0.9 6.1 0.00 0.00 0.00 52 1012.0
20260905181856 91 353 2.6 6.1 0.00 0.00 0.00 52 1012.0
20260905181815 91 1 3.5 6.1 0.00 0.00 0.00 51 1012.0
20260905181723 90 16 1.7 6.1 0.00 0.00 0.00 52 1012.0
20260905181540 90 322 0.0 5.2 0.00 0.00 0.00 52 1012.0
20260905181501 90 320 1.7 5.2 0.00 0.00 0.00 53 1012.0
20260905181338 90 322 1.7 5.2 0.00 0.00 0.00 53 1012.0
20260905181240 90 319 1.7 6.1 0.00 0.00 0.00 53 1012.0
20260905181159 90 320 1.7 6.1 0.00 0.00 0.00 53 1012.0
20260905181035 90 318 0.9 6.1 0.00 0.00 0.00 53 1012.0
20260905180933 90 319 0.9 7.0 0.00 0.00 0.00 52 1012.0
20260905180831 90 319 3.5 7.0 0.00 0.00 0.00 52 1012.0
20260905180749 90 356 3.5 7.0 0.00 0.00 0.00 53 1012.0
20260905180627 90 357 0.0 7.0 0.00 0.00 0.00 53 1012.0
20260905180526 90 359 0.9 7.0 0.00 0.00 0.00 52 1012.0
20260905180429 90 359 3.5 7.0 0.00 0.00 0.00 51 1012.0
20260905180327 90 17 2.6 7.0 0.00 0.00 0.00 51 1012.0
20260905180245 90 17 4.3 7.0 0.00 0.00 0.00 52 1012.0
20260905180155 90 16 5.2 7.0 0.00 0.00 0.00 52 1012.0
20260905180032 90 295 4.3 6.1 0.00 0.00 0.00 52 1012.0
20260905175932 90 356 3.5 6.1 0.00 0.00 0.00 54 1012.0
20260905175851 90 343 4.3 6.1 0.00 0.00 0.00 55 1012.0
20260905175731 90 359 3.5 6.1 0.00 0.00 0.00 55 1012.1
20260905175632 90 360 3.5 6.1 0.00 0.00 0.00 54 1012.1
20260905175531 90 32 1.7 4.3 0.00 0.00 0.00 54 1012.1
20260905175429 90 34 1.7 5.2 0.00 0.00 0.00 54 1012.1
20260905175327 90 32 0.9 5.2 0.00 0.00 0.00 55 1012.1
20260905175246 90 31 0.0 5.2 0.00 0.00 0.00 55 1012.1
20260905175204 90 32 0.0 6.1 0.00 0.00 0.00 55 1012.1
20260905175040 90 34 0.9 7.0 0.00 0.00 0.00 54 1012.1
20260905174940 90 31 1.7 7.0 0.00 0.00 0.00 54 1012.1
20260905174903 90 34 1.7 7.0 0.00 0.00 0.00 55 1012.1
20260905174740 90 32 1.7 7.0 0.00 0.00 0.00 55 1012.1
20260905174711 90 38 1.7 7.0 0.00 0.00 0.00 55 1012.1
20260905174528 90 37 3.5 7.0 0.00 0.00 0.00 56 1012.1
20260905174427 90 40 2.6 7.0 0.00 0.00 0.00 55 1012.1
20260905174326 90 42 4.3 7.0 0.00 0.00 0.00 55 1012.1
20260905174243 90 44 5.2 7.0 0.00 0.00 0.00 55 1012.4
20260905174126 90 38 5.2 7.0 0.00 0.00 0.00 54 1012.4
20260905174025 90 309 0.9 5.2 0.00 0.00 0.00 56 1012.4
20260905173943 90 291 0.0 5.2 0.00 0.00 0.00 56 1012.4
20260905173841 90 291 0.9 5.2 0.00 0.00 0.00 56 1012.4
20260905173759 90 291 1.7 5.2 0.00 0.00 0.00 55 1012.4
20260905173638 90 294 0.9 5.2 0.00 0.00 0.00 56 1012.4
20260905173556 90 295 0.9 5.2 0.00 0.00 0.00 56 1012.4
20260905173432 90 287 0.9 5.2 0.00 0.00 0.00 56 1012.4
20260905173330 89 288 3.5 5.2 0.00 0.00 0.00 55 1012.4
20260905173232 89 315 2.6 6.1 0.00 0.00 0.00 56 1012.4
20260905173203 89 316 1.7 6.1 0.00 0.00 0.00 56 1012.4
20260905173039 89 316 1.7 6.1 0.00 0.00 0.00 56 1012.4
20260905172938 89 319 1.7 6.1 0.00 0.00 0.00 56 1012.4
20260905172837 89 318 0.9 6.1 0.00 0.00 0.00 56 1012.4
20260905172739 89 320 1.7 6.1 0.00 0.00 0.00 55 1012.6
20260905172657 89 323 1.7 8.7 0.00 0.00 0.00 54 1012.6
20260905172535 89 322 1.7 8.7 0.00 0.00 0.00 56 1012.6
20260905172459 89 322 1.7 8.7 0.00 0.00 0.00 55 1012.6
20260905172336 89 319 4.3 8.7 0.00 0.00 0.00 55 1012.6
20260905172235 89 329 0.9 8.7 0.00 0.00 0.00 56 1012.6
20260905172134 89 329 0.0 8.7 0.00 0.00 0.00 56 1012.6
20260905172031 89 329 1.7 8.7 0.00 0.00 0.00 56 1012.6
20260905171928 89 328 2.6 8.7 0.00 0.00 0.00 56 1012.6
20260905171847 89 325 6.1 8.7 0.00 0.00 0.00 55 1012.6
20260905171736 89 294 3.5 6.1 0.00 0.00 0.00 56 1012.6
20260905171647 89 302 0.9 6.1 0.00 0.00 0.00 56 1012.6
20260905171545 89 344 0.9 6.1 0.00 0.00 0.00 55 1012.6
20260905171442 89 342 1.7 6.1 0.00 0.00 0.00 55 1012.6
20260905171341 89 343 0.9 6.1 0.00 0.00 0.00 55 1012.6
20260905171239 89 343 2.6 6.1 0.00 0.00 0.00 56 1012.6
20260905171138 89 344 4.3 6.1 0.00 0.00 0.00 57 1012.6
20260905171057 89 359 4.3 6.1 0.00 0.00 0.00 57 1012.6
20260905170934 89 340 1.7 6.1 0.00 0.00 0.00 56 1012.6
20260905170852 89 340 1.7 6.1 0.00 0.00 0.00 56 1012.6
20260905170734 89 330 0.0 6.1 0.00 0.00 0.00 56 1012.6
20260905170633 89 330 2.6 6.1 0.00 0.00 0.00 56 1012.6
20260905170531 89 330 3.5 6.1 0.00 0.00 0.00 57 1012.6
20260905170449 89 330 1.7 6.1 0.00 0.00 0.00 57 1012.6
20260905170326 89 325 0.9 6.1 0.00 0.00 0.00 57 1012.6
20260905170237 89 325 2.6 6.1 0.00 0.00 0.00 56 1012.6
20260905170146 89 332 0.0 6.1 0.00 0.00 0.00 56 1012.6
20260905170027 89 328 0.9 6.1 0.00 0.00 0.00 56 1012.6
20260905165945 89 332 5.2 6.1 0.00 0.00 0.00 55 1012.6
20260905165841 89 326 5.2 6.1 0.00 0.00 0.00 56 1012.6
20260905165800 89 302 2.6 6.1 0.00 0.00 0.00 57 1012.8
20260905165638 88 292 0.9 6.1 0.00 0.00 0.00 58 1012.8
20260905165536 88 280 2.6 6.1 0.00 0.00 0.00 58 1012.8
20260905165435 88 292 1.7 6.1 0.00 0.00 0.00 57 1012.8
20260905165334 88 292 2.6 6.1 0.00 0.00 0.00 58 1012.8
20260905165237 88 284 1.7 5.2 0.00 0.00 0.00 57 1012.8
20260905165136 88 328 1.7 6.1 0.00 0.00 0.00 58 1012.8
20260905165035 88 328 1.7 6.1 0.00 0.00 0.00 58 1012.8
20260905164933 88 329 0.9 6.1 0.00 0.00 0.00 57 1012.8
20260905164833 88 330 2.6 6.1 0.00 0.00 0.00 57 1012.8
20260905164743 88 292 0.9 6.1 0.00 0.00 0.00 57 1012.8
20260905164652 88 295 1.7 6.1 0.00 0.00 0.00 58 1012.8
20260905164537 88 295 1.7 6.1 0.00 0.00 0.00 57 1012.8
20260905164435 88 318 2.6 6.1 0.00 0.00 0.00 57 1012.8
20260905164334 88 328 3.5 6.1 0.00 0.00 0.00 60 1012.8
20260905164234 88 329 1.7 5.2 0.00 0.00 0.00 59 1013.1
20260905164132 88 313 0.9 5.2 0.00 0.00 0.00 59 1013.1
20260905164051 88 313 1.7 5.2 0.00 0.00 0.00 60 1013.1
20260905163927 88 312 0.9 5.2 0.00 0.00 0.00 59 1013.1
20260905163831 87 308 0.0 5.2 0.00 0.00 0.00 59 1013.1
20260905163729 87 311 0.0 6.1 0.00 0.00 0.00 60 1013.1
20260905163630 87 311 0.0 6.1 0.00 0.00 0.00 61 1013.1
20260905163528 87 311 1.7 6.1 0.00 0.00 0.00 61 1013.1
20260905163429 87 308 2.6 6.1 0.00 0.00 0.00 60 1013.1
20260905163325 87 309 4.3 6.1 0.00 0.00 0.00 61 1013.1
20260905163227 87 309 3.5 6.1 0.00 0.00 0.00 60 1013.1
20260905163158 87 320 2.6 6.1 0.00 0.00 0.00 60 1013.1
20260905163039 87 337 1.7 6.1 0.00 0.00 0.00 61 1013.1
20260905162939 87 292 2.6 6.1 0.00 0.00 0.00 61 1013.1
20260905162837 87 325 2.6 6.1 0.00 0.00 0.00 61 1013.1
20260905162735 87 320 1.7 5.2 0.00 0.00 0.00 61 1013.2
20260905162635 87 318 2.6 5.2 0.00 0.00 0.00 61 1013.2
20260905162533 87 319 0.9 5.2 0.00 0.00 0.00 61 1013.2
20260905162431 87 318 2.6 5.2 0.00 0.00 0.00 61 1013.2
20260905162334 87 319 3.5 5.2 0.00 0.00 0.00 61 1013.2
20260905162252 87 313 1.7 5.2 0.00 0.00 0.00 61 1013.2
20260905162155 87 335 1.7 5.2 0.00 0.00 0.00 60 1013.2
20260905162034 87 319 1.7 5.2 0.00 0.00 0.00 60 1013.2
20260905161936 87 346 3.5 5.2 0.00 0.00 0.00 62 1013.2
20260905161833 87 318 1.7 5.2 0.00 0.00 0.00 62 1013.2
20260905161752 87 313 0.9 5.2 0.00 0.00 0.00 62 1013.2
20260905161721 87 315 1.7 5.2 0.00 0.00 0.00 62 1013.2
20260905161542 86 312 0.9 5.2 0.00 0.00 0.00 62 1013.2
20260905161501 86 313 0.0 5.2 0.00 0.00 0.00 62 1013.2
20260905161338 86 311 0.9 5.2 0.00 0.00 0.00 62 1013.2
20260905161237 86 312 2.6 5.2 0.00 0.00 0.00 62 1013.4
20260905161135 86 313 1.7 5.2 0.00 0.00 0.00 61 1013.4
20260905161034 86 312 3.5 5.2 0.00 0.00 0.00 62 1013.4
20260905160931 86 313 2.6 5.2 0.00 0.00 0.00 63 1013.4
20260905160851 86 312 1.7 5.2 0.00 0.00 0.00 63 1013.4
20260905160732 86 311 3.5 5.2 0.00 0.00 0.00 62 1013.4
20260905160631 86 312 4.3 5.2 0.00 0.00 0.00 63 1013.4
20260905160531 86 312 3.5 5.2 0.00 0.00 0.00 62 1013.4
20260905160429 86 315 3.5 5.2 0.00 0.00 0.00 62 1013.4
20260905160348 86 316 1.7 2.6 0.00 0.00 0.00 62 1013.4
20260905160246 86 316 0.9 2.6 0.00 0.00 0.00 62 1013.4
20260905160216 86 318 0.9 2.6 0.00 0.00 0.00 62 1013.4
20260905160031 86 319 1.7 4.3 0.00 0.00 0.00 63 1013.4
20260905155934 86 318 0.0 4.3 0.00 0.00 0.00 63 1013.4
20260905155834 86 318 0.9 4.3 0.00 0.00 0.00 63 1013.4
20260905155752 86 316 1.7 4.3 0.00 0.00 0.00 63 1013.4
20260905155630 86 318 0.9 4.3 0.00 0.00 0.00 64 1013.4
20260905155528 86 318 1.7 4.3 0.00 0.00 0.00 63 1013.4
20260905155427 86 318 1.7 4.3 0.00 0.00 0.00 64 1013.4
20260905155328 85 315 1.7 4.3 0.00 0.00 0.00 64 1013.4
20260905155230 85 318 3.5 4.3 0.00 0.00 0.00 65 1013.4
20260905155127 85 318 1.7 4.3 0.00 0.00 0.00 66 1013.4
20260905155027 85 318 0.9 4.3 0.00 0.00 0.00 65 1013.4
20260905154926 85 316 1.7 4.3 0.00 0.00 0.00 66 1013.4
20260905154826 85 316 0.9 5.2 0.00 0.00 0.00 65 1013.4
20260905154726 85 318 0.0 5.2 0.00 0.00 0.00 65 1013.4
20260905154657 85 318 0.0 5.2 0.00 0.00 0.00 65 1013.4
20260905154537 85 319 0.0 6.1 0.00 0.00 0.00 65 1013.4
20260905154455 85 318 0.9 6.1 0.00 0.00 0.00 66 1013.4
20260905154333 85 318 1.7 6.1 0.00 0.00 0.00 67 1013.4
20260905154233 85 318 3.5 6.1 0.00 0.00 0.00 68 1013.4
20260905154131 85 316 2.6 6.1 0.00 0.00 0.00 68 1013.4
20260905154029 85 318 3.5 6.1 0.00 0.00 0.00 66 1013.4
20260905153928 85 318 3.5 6.1 0.00 0.00 0.00 66 1013.4
20260905153827 85 319 4.3 6.1 0.00 0.00 0.00 66 1013.4
20260905153728 85 320 4.3 6.1 0.00 0.00 0.00 68 1013.4
20260905153627 85 320 2.6 5.2 0.00 0.00 0.00 67 1013.4
20260905153527 85 320 2.6 5.2 0.00 0.00 0.00 67 1013.4
20260905153426 85 322 2.6 5.2 0.00 0.00 0.00 67 1013.4
20260905153344 85 319 0.9 4.3 0.00 0.00 0.00 68 1013.4
20260905153242 85 320 2.6 4.3 0.00 0.00 0.00 68 1013.4
20260905153213 85 319 2.6 4.3 0.00 0.00 0.00 69 1013.4
20260905153049 85 333 1.7 4.3 0.00 0.00 0.00 68 1013.4
20260905152929 85 333 0.9 4.3 0.00 0.00 0.00 68 1013.4
20260905152827 85 335 0.9 4.3 0.00 0.00 0.00 68 1013.4
20260905152747 85 335 0.9 4.3 0.00 0.00 0.00 69 1013.4
20260905152649 84 333 1.7 4.3 0.00 0.00 0.00 69 1013.4
20260905152546 84 333 0.9 4.3 0.00 0.00 0.00 69 1013.4
20260905152446 84 333 1.7 4.3 0.00 0.00 0.00 69 1013.4
20260905152344 84 333 2.6 4.3 0.00 0.00 0.00 68 1013.4
20260905152301 84 335 2.6 4.3 0.00 0.00 0.00 68 1013.4
20260905152139 84 336 2.6 4.3 0.00 0.00 0.00 69 1013.4
20260905152057 84 336 0.9 3.5 0.00 0.00 0.00 68 1013.4
20260905151954 84 337 0.9 3.5 0.00 0.00 0.00 68 1013.4
20260905151836 84 340 0.0 3.5 0.00 0.00 0.00 68 1013.4
20260905151735 84 339 0.0 3.5 0.00 0.00 0.00 69 1013.4
20260905151704 84 339 0.0 3.5 0.00 0.00 0.00 69 1013.4
20260905151541 84 339 0.0 3.5 0.00 0.00 0.00 69 1013.4
20260905151439 84 337 0.0 3.5 0.00 0.00 0.00 69 1013.4
20260905151337 84 340 0.9 3.5 0.00 0.00 0.00 69 1013.4
20260905151237 84 339 0.0 3.5 0.00 0.00 0.00 70 1012.4
20260905151140 84 340 0.0 1.7 0.00 0.00 0.00 70 1012.4
20260905151039 84 340 0.0 1.7 0.00 0.00 0.00 70 1012.4
20260905150937 83 340 0.0 1.7 0.00 0.00 0.00 70 1012.4
20260905150836 83 337 0.0 1.7 0.00 0.00 0.00 71 1012.4
20260905150734 83 340 0.0 1.7 0.00 0.00 0.00 71 1012.4
20260905150633 83 340 0.0 1.7 0.00 0.00 0.00 71 1012.4
20260905150535 83 339 0.0 1.7 0.00 0.00 0.00 71 1012.4
20260905150433 83 342 0.0 1.7 0.00 0.00 0.00 71 1012.4
20260905150332 83 342 0.9 1.7 0.00 0.00 0.00 71 1012.4
20260905150301 83 340 1.7 1.7 0.00 0.00 0.00 71 1012.4
20260905150151 83 337 1.7 1.7 0.00 0.00 0.00 71 1012.4
20260905150030 83 339 0.0 1.7 0.00 0.00 0.00 71 1012.4
20260905145927 83 336 0.0 0.9 0.00 0.00 0.00 71 1012.4
20260905145846 83 340 0.0 0.9 0.00 0.00 0.00 71 1012.4
20260905145804 83 335 0.0 0.9 0.00 0.00 0.00 71 1012.5
20260905145707 83 340 0.0 0.9 0.00 0.00 0.00 71 1012.5
20260905145605 83 340 0.0 1.7 0.00 0.00 0.00 71 1012.5
20260905145442 83 340 0.0 1.7 0.00 0.00 0.00 71 1012.5
20260905145341 83 340 0.0 1.7 0.00 0.00 0.00 71 1012.5
20260905145258 82 340 0.0 1.7 0.00 0.00 0.00 71 1012.5
20260905145137 82 340 0.0 1.7 0.00 0.00 0.00 71 1012.5
20260905145034 82 340 0.0 1.7 0.00 0.00 0.00 71 1012.5
20260905144933 82 337 0.0 1.7 0.00 0.00 0.00 72 1012.5
20260905144856 82 340 0.0 2.6 0.00 0.00 0.00 72 1012.5
20260905144703 82 340 0.0 2.6 0.00 0.00 0.00 71 1012.5
20260905144541 82 340 0.0 2.6 0.00 0.00 0.00 71 1012.5
20260905144440 82 340 0.0 2.6 0.00 0.00 0.00 70 1012.5
20260905144339 82 340 0.0 2.6 0.00 0.00 0.00 70 1012.5
20260905144237 82 339 0.0 2.6 0.00 0.00 0.00 70 1012.8
20260905144140 82 340 0.9 3.5 0.00 0.00 0.00 70 1012.8
20260905144059 82 336 1.7 3.5 0.00 0.00 0.00 70 1012.8
20260905143936 82 340 0.9 3.5 0.00 0.00 0.00 69 1012.8
20260905143834 82 339 0.9 3.5 0.00 0.00 0.00 69 1012.8
20260905143733 82 340 1.7 4.3 0.00 0.00 0.00 70 1012.8
20260905143632 82 336 1.7 4.3 0.00 0.00 0.00 71 1012.8
20260905143531 82 340 0.9 4.3 0.00 0.00 0.00 71 1012.8
20260905143450 82 342 1.7 4.3 0.00 0.00 0.00 72 1012.8
20260905143335 82 340 1.7 4.3 0.00 0.00 0.00 73 1012.8
20260905143233 82 340 0.9 4.3 0.00 0.00 0.00 73 1012.8
20260905143205 81 342 0.9 4.3 0.00 0.00 0.00 72 1012.8
20260905143041 81 340 0.9 4.3 0.00 0.00 0.00 72 1012.8
20260905142940 81 339 2.6 4.3 0.00 0.00 0.00 72 1012.8
20260905142838 81 336 1.7 4.3 0.00 0.00 0.00 71 1012.8
20260905142737 81 337 1.7 4.3 0.00 0.00 0.00 71 1012.9
20260905142639 81 337 0.9 4.3 0.00 0.00 0.00 70 1012.9
20260905142537 81 337 1.7 4.3 0.00 0.00 0.00 71 1012.9
20260905142437 81 336 0.9 4.3 0.00 0.00 0.00 72 1012.9
20260905142334 81 339 0.9 4.3 0.00 0.00 0.00 71 1012.9
20260905142234 81 339 1.7 4.3 0.00 0.00 0.00 71 1012.9
20260905142133 81 339 1.7 4.3 0.00 0.00 0.00 72 1012.9
20260905142032 81 342 0.0 2.6 0.00 0.00 0.00 73 1012.9
20260905141954 81 340 1.7 2.6 0.00 0.00 0.00 74 1012.9
20260905141832 81 343 1.7 2.6 0.00 0.00 0.00 74 1012.9
20260905141732 81 343 0.9 2.6 0.00 0.00 0.00 74 1012.9
20260905141700 81 344 0.9 2.6 0.00 0.00 0.00 74 1012.9
20260905141538 81 346 0.9 2.6 0.00 0.00 0.00 74 1012.9
20260905141437 81 344 0.0 2.6 0.00 0.00 0.00 73 1012.9
20260905141336 81 346 0.9 2.6 0.00 0.00 0.00 71 1012.9
20260905141256 81 347 0.0 2.6 0.00 0.00 0.00 71 1013.0
20260905141137 81 344 0.9 2.6 0.00 0.00 0.00 70 1013.0
20260905141035 81 346 1.7 2.6 0.00 0.00 0.00 71 1013.0
20260905140933 81 346 0.9 2.6 0.00 0.00 0.00 71 1013.0
20260905140834 81 347 0.9 2.6 0.00 0.00 0.00 71 1013.0
20260905140732 80 346 0.0 1.7 0.00 0.00 0.00 71 1013.0
20260905140630 80 346 0.9 2.6 0.00 0.00 0.00 72 1013.0
20260905140533 80 346 0.9 2.6 0.00 0.00 0.00 72 1013.0
20260905140451 80 346 0.0 2.6 0.00 0.00 0.00 73 1013.0
20260905140328 80 347 0.0 2.6 0.00 0.00 0.00 73 1013.0
20260905140248 80 344 0.0 2.6 0.00 0.00 0.00 74 1013.0
20260905140158 80 346 0.0 2.6 0.00 0.00 0.00 74 1013.0
20260905140054 80 346 0.9 2.6 0.00 0.00 0.00 74 1013.0
20260905135930 80 344 0.9 2.6 0.00 0.00 0.00 75 1013.0
20260905135827 80 346 1.7 3.5 0.00 0.00 0.00 75 1013.0
20260905135727 80 346 0.9 4.3 0.00 0.00 0.00 75 1013.0
20260905135624 80 346 0.0 4.3 0.00 0.00 0.00 75 1013.0
20260905135527 80 346 0.0 4.3 0.00 0.00 0.00 75 1013.0
20260905135446 80 346 0.0 4.3 0.00 0.00 0.00 75 1013.0
20260905135404 80 344 0.0 4.3 0.00 0.00 0.00 75 1013.0
20260905135301 79 347 0.0 4.3 0.00 0.00 0.00 74 1013.0
20260905135137 79 346 0.9 4.3 0.00 0.00 0.00 74 1013.0
20260905135035 79 346 1.7 4.3 0.00 0.00 0.00 74 1013.0
20260905134933 79 347 2.6 4.3 0.00 0.00 0.00 74 1013.0
20260905134832 79 347 0.9 1.7 0.00 0.00 0.00 74 1013.0
20260905134754 79 342 0.0 1.7 0.00 0.00 0.00 75 1013.0
20260905134704 79 347 0.0 1.7 0.00 0.00 0.00 76 1013.0
20260905134542 79 347 0.0 1.7 0.00 0.00 0.00 76 1013.0
20260905134441 79 347 0.0 1.7 0.00 0.00 0.00 75 1013.0
20260905134340 79 346 0.0 1.7 0.00 0.00 0.00 75 1013.0
20260905134239 79 344 0.0 1.7 0.00 0.00 0.00 76 1013.1
20260905134136 79 347 0.0 1.7 0.00 0.00 0.00 77 1013.1
20260905134055 79 347 0.9 1.7 0.00 0.00 0.00 77 1013.1
20260905133936 79 347 0.0 0.9 0.00 0.00 0.00 77 1013.1
20260905133835 79 347 0.0 0.0 0.00 0.00 0.00 77 1013.1
20260905133734 79 347 0.0 0.0 0.00 0.00 0.00 77 1013.1
20260905133634 79 347 0.0 0.0 0.00 0.00 0.00 77 1013.1
20260905133531 79 347 0.0 0.0 0.00 0.00 0.00 77 1013.1
20260905133430 79 347 0.0 0.0 0.00 0.00 0.00 77 1013.1
20260905133332 79 347 0.0 0.0 0.00 0.00 0.00 77 1013.1
20260905133241 79 347 0.0 0.0 0.00 0.00 0.00 77 1013.1
20260905133150 79 347 0.0 0.0 0.00 0.00 0.00 77 1013.1
20260905133047 79 347 0.0 0.0 0.00 0.00 0.00 77 1013.1
20260905132924 79 347 0.0 0.0 0.00 0.00 0.00 77 1013.1
20260905132843 79 347 0.0 0.0 0.00 0.00 0.00 77 1013.1
20260905132741 79 347 0.0 0.0 0.00 0.00 0.00 77 1013.1
20260905132639 79 347 0.0 0.0 0.00 0.00 0.00 77 1013.1
20260905132542 79 346 0.0 0.0 0.00 0.00 0.00 77 1013.1
20260905132440 79 347 0.0 0.0 0.00 0.00 0.00 77 1013.1
20260905132359 79 347 0.0 0.0 0.00 0.00 0.00 77 1013.1
20260905132236 79 346 0.0 0.0 0.00 0.00 0.00 77 1013.1
20260905132154 79 346 0.0 0.0 0.00 0.00 0.00 77 1013.1
20260905132032 79 347 0.0 0.0 0.00 0.00 0.00 77 1013.1
20260905131930 79 346 0.0 0.0 0.00 0.00 0.00 78 1013.1
20260905131829 78 347 0.0 0.0 0.00 0.00 0.00 78 1013.1
20260905131735 78 344 0.0 0.0 0.00 0.00 0.00 78 1013.1
20260905131704 78 347 0.0 0.0 0.00 0.00 0.00 77 1013.1
20260905131601 78 347 0.0 0.0 0.00 0.00 0.00 77 1013.1
20260905131437 78 347 0.0 0.9 0.00 0.00 0.00 79 1013.1
20260905131335 78 347 0.0 1.7 0.00 0.00 0.00 79 1013.1
20260905131233 78 347 0.0 1.7 0.00 0.00 0.00 80 1013.1
20260905131132 78 346 0.0 1.7 0.00 0.00 0.00 80 1013.1
20260905131035 78 347 0.0 1.7 0.00 0.00 0.00 80 1013.1
20260905130934 78 347 0.0 1.7 0.00 0.00 0.00 80 1013.1
20260905130835 78 346 0.0 1.7 0.00 0.00 0.00 80 1013.1
20260905130734 78 347 0.0 1.7 0.00 0.00 0.00 80 1013.1
20260905130632 78 347 0.0 1.7 0.00 0.00 0.00 80 1013.1
20260905130530 78 347 0.9 1.7 0.00 0.00 0.00 80 1013.1
20260905130429 78 347 0.9 1.7 0.00 0.00 0.00 80 1013.1
20260905130331 78 347 0.9 1.7 0.00 0.00 0.00 80 1013.1
20260905130241 78 347 0.0 0.0 0.00 0.00 0.00 80 1013.1
20260905130151 78 346 0.0 0.0 0.00 0.00 0.00 80 1013.1
20260905130029 78 347 0.0 0.0 0.00 0.00 0.00 80 1013.1
20260905125946 78 344 0.0 0.0 0.00 0.00 0.00 80 1013.1
20260905125905 78 347 0.0 0.0 0.00 0.00 0.00 80 1013.1
20260905125741 78 344 0.0 0.0 0.00 0.00 0.00 79 1013.1
20260905125700 78 347 0.0 0.0 0.00 0.00 0.00 79 1013.1
20260905125541 78 346 0.0 0.0 0.00 0.00 0.00 79 1013.1
20260905125501 78 347 0.0 0.0 0.00 0.00 0.00 79 1013.1
20260905125357 78 347 0.0 0.0 0.00 0.00 0.00 79 1013.1
20260905125235 78 346 0.0 0.0 0.00 0.00 0.00 79 1013.1
20260905125133 78 347 0.0 0.0 0.00 0.00 0.00 78 1013.1
20260905125052 78 347 0.0 0.0 0.00 0.00 0.00 78 1013.1
20260905124929 78 346 0.0 0.0 0.00 0.00 0.00 78 1013.1
20260905124826 78 347 0.0 0.0 0.00 0.00 0.00 78 1013.1
20260905124729 77 347 0.0 0.0 0.00 0.00 0.00 78 1013.1
20260905124659 77 346 0.0 0.0 0.00 0.00 0.00 78 1013.1
20260905124537 77 346 0.0 0.0 0.00 0.00 0.00 78 1013.1
20260905124435 77 346 0.0 0.0 0.00 0.00 0.00 78 1013.1
20260905124353 77 347 0.0 0.0 0.00 0.00 0.00 78 1013.1
20260905124250 77 344 0.0 0.0 0.00 0.00 0.00 78 1013.1
20260905124128 77 347 0.0 0.0 0.00 0.00 0.00 79 1013.1
20260905124027 77 346 0.0 0.0 0.00 0.00 0.00 79 1013.1
20260905123925 77 347 0.0 0.0 0.00 0.00 0.00 79 1013.1
20260905123828 77 346 0.0 0.0 0.00 0.00 0.00 79 1013.1
20260905123726 77 344 0.0 0.0 0.00 0.00 0.00 79 1013.1
20260905123625 77 347 0.0 0.0 0.00 0.00 0.00 79 1013.1
20260905123542 77 347 0.0 0.0 0.00 0.00 0.00 79 1013.1
20260905123440 77 346 0.0 0.0 0.00 0.00 0.00 79 1013.1
20260905123339 77 344 0.0 0.9 0.00 0.00 0.00 79 1013.1
20260905123238 77 347 0.0 1.7 0.00 0.00 0.00 79 1013.1
20260905123213 77 347 0.0 1.7 0.00 0.00 0.00 79 1013.1
20260905123028 77 347 0.0 1.7 0.00 0.00 0.00 79 1013.1
20260905122927 77 347 0.0 2.6 0.00 0.00 0.00 78 1013.1
20260905122829 77 344 0.0 2.6 0.00 0.00 0.00 78 1013.1
20260905122747 77 347 0.0 2.6 0.00 0.00 0.00 78 1012.9
20260905122644 77 347 0.0 2.6 0.00 0.00 0.00 78 1012.9
20260905122541 77 347 0.0 2.6 0.00 0.00 0.00 78 1012.9
20260905122439 77 347 0.9 2.6 0.00 0.00 0.00 78 1012.9
20260905122401 77 347 0.9 2.6 0.00 0.00 0.00 78 1012.9
20260905122239 77 347 0.9 2.6 0.00 0.00 0.00 78 1012.9
20260905122135 77 346 1.7 2.6 0.00 0.00 0.00 78 1012.9
20260905122032 77 347 1.7 2.6 0.00 0.00 0.00 78 1012.9
20260905121932 77 346 1.7 2.6 0.00 0.00 0.00 78 1012.9
20260905121831 77 347 1.7 1.7 0.00 0.00 0.00 78 1012.9
20260905121730 77 347 0.0 0.9 0.00 0.00 0.00 78 1012.9
20260905121659 77 346 0.0 1.7 0.00 0.00 0.00 78 1012.9
20260905121541 77 346 0.0 1.7 0.00 0.00 0.00 78 1012.9
20260905121440 77 347 0.0 1.7 0.00 0.00 0.00 78 1012.9
20260905121338 77 347 0.0 2.6 0.00 0.00 0.00 78 1012.9
20260905121237 77 347 0.0 2.6 0.00 0.00 0.00 78 1012.6
20260905121135 77 347 0.0 2.6 0.00 0.00 0.00 78 1012.6
20260905121033 77 347 0.0 2.6 0.00 0.00 0.00 78 1012.6
20260905120951 77 347 0.0 2.6 0.00 0.00 0.00 77 1012.6
20260905120832 77 342 0.9 2.6 0.00 0.00 0.00 77 1012.6
20260905120731 77 347 1.7 2.6 0.00 0.00 0.00 77 1012.6
20260905120630 77 347 0.9 2.6 0.00 0.00 0.00 77 1012.6
20260905120529 77 347 1.7 2.6 0.00 0.00 0.00 77 1012.6
20260905120427 77 347 1.7 2.6 0.00 0.00 0.00 77 1012.6
20260905120326 77 347 1.7 2.6 0.00 0.00 0.00 77 1012.6
20260905120239 77 347 1.7 2.6 0.00 0.00 0.00 77 1012.6
20260905120148 77 347 1.7 2.6 0.00 0.00 0.00 77 1012.6
20260905120025 77 347 0.9 2.6 0.00 0.00 0.00 77 1012.6
20260905115943 77 344 1.7 2.6 0.00 0.00 0.00 77 1012.6
20260905115841 77 344 1.7 2.6 0.00 0.00 0.00 77 1012.6
20260905115739 77 347 0.9 1.7 0.00 0.00 0.00 77 1012.4
20260905115638 77 344 1.7 1.7 0.00 0.00 0.00 77 1012.4
20260905115536 77 347 0.9 1.7 0.00 0.00 0.00 77 1012.4
20260905115439 77 347 0.9 1.7 0.00 0.00 0.00 77 1012.4
20260905115338 77 346 0.9 2.6 0.00 0.00 0.00 76 1012.4
20260905115256 77 347 0.0 2.6 0.00 0.00 0.00 76 1012.4
20260905115132 77 343 0.0 2.6 0.00 0.00 0.00 76 1012.4
20260905115031 77 347 0.9 2.6 0.00 0.00 0.00 76 1012.4
20260905114929 77 347 0.9 2.6 0.00 0.00 0.00 76 1012.4
20260905114848 77 346 0.9 2.6 0.00 0.00 0.00 76 1012.4
20260905114736 77 346 1.7 2.6 0.00 0.00 0.00 76 1012.4
20260905114649 77 344 1.7 3.5 0.00 0.00 0.00 76 1012.4
20260905114548 77 344 1.7 4.3 0.00 0.00 0.00 76 1012.4
20260905114425 77 347 1.7 4.3 0.00 0.00 0.00 76 1012.4
20260905114324 77 347 1.7 4.3 0.00 0.00 0.00 76 1012.4
20260905114242 77 347 1.7 4.3 0.00 0.00 0.00 77 1012.2
20260905114141 77 346 2.6 4.3 0.00 0.00 0.00 77 1012.2
20260905114039 77 347 2.6 4.3 0.00 0.00 0.00 77 1012.2
20260905113937 77 346 1.7 4.3 0.00 0.00 0.00 77 1012.2
20260905113859 77 347 2.6 4.3 0.00 0.00 0.00 77 1012.2
20260905113736 77 343 3.5 4.3 0.00 0.00 0.00 77 1012.2
20260905113636 77 349 3.5 4.3 0.00 0.00 0.00 77 1012.2
20260905113535 77 349 3.5 4.3 0.00 0.00 0.00 77 1012.2
20260905113432 77 350 3.5 4.3 0.00 0.00 0.00 77 1012.2
20260905113330 77 347 2.6 4.3 0.00 0.00 0.00 77 1012.2
20260905113229 77 350 3.5 4.3 0.00 0.00 0.00 77 1012.2
20260905113159 77 352 3.5 4.3 0.00 0.00 0.00 77 1012.2
20260905113039 77 353 4.3 4.3 0.00 0.00 0.00 77 1012.2
20260905112957 77 352 3.5 4.3 0.00 0.00 0.00 77 1012.2
20260905112835 77 352 3.5 4.3 0.00 0.00 0.00 77 1012.2
20260905112734 77 352 3.5 4.3 0.00 0.00 0.00 77 1012.1
20260905112631 77 353 3.5 4.3 0.00 0.00 0.00 77 1012.1
20260905112531 77 356 3.5 4.3 0.00 0.00 0.00 77 1012.1
20260905112430 77 356 2.6 4.3 0.00 0.00 0.00 77 1012.1
20260905112332 77 1 2.6 4.3 0.00 0.00 0.00 77 1012.1
20260905112229 77 360 3.5 4.3 0.00 0.00 0.00 77 1012.1
20260905112128 77 1 2.6 4.3 0.00 0.00 0.00 77 1012.1
20260905112026 77 360 2.6 4.3 0.00 0.00 0.00 77 1012.1
20260905111925 77 360 2.6 4.3 0.00 0.00 0.00 77 1012.1
20260905111843 77 1 2.6 4.3 0.00 0.00 0.00 77 1012.1
20260905111726 77 360 2.6 2.6 0.00 0.00 0.00 77 1012.1
20260905111654 77 360 2.6 3.5 0.00 0.00 0.00 77 1012.1
20260905111532 77 360 2.6 3.5 0.00 0.00 0.00 77 1012.1
20260905111431 77 1 2.6 3.5 0.00 0.00 0.00 76 1012.1
20260905111326 77 1 1.7 3.5 0.00 0.00 0.00 76 1012.1
20260905111225 77 1 2.6 4.3 0.00 0.00 0.00 76 1011.8
20260905111143 77 360 2.6 4.3 0.00 0.00 0.00 76 1011.8
20260905111042 77 1 2.6 4.3 0.00 0.00 0.00 76 1011.8
20260905110925 77 360 1.7 4.3 0.00 0.00 0.00 76 1011.8
20260905110843 77 360 2.6 4.3 0.00 0.00 0.00 76 1011.8
20260905110742 77 360 2.6 4.3 0.00 0.00 0.00 76 1011.8
20260905110640 77 1 2.6 4.3 0.00 0.00 0.00 76 1011.8
20260905110559 77 3 2.6 4.3 0.00 0.00 0.00 76 1011.8
20260905110456 77 3 2.6 4.3 0.00 0.00 0.00 76 1011.8
20260905110332 77 4 2.6 4.3 0.00 0.00 0.00 77 1011.8
20260905110252 77 4 2.6 4.3 0.00 0.00 0.00 77 1011.8
20260905110224 77 3 2.6 4.3 0.00 0.00 0.00 77 1011.8
20260905110104 77 6 2.6 4.3 0.00 0.00 0.00 77 1011.8
20260905105941 77 7 2.6 4.3 0.00 0.00 0.00 77 1011.8
20260905105841 77 8 2.6 4.3 0.00 0.00 0.00 77 1011.8
20260905105739 77 7 2.6 2.6 0.00 0.00 0.00 77 1011.8
20260905105658 77 6 1.7 4.3 0.00 0.00 0.00 76 1011.8
20260905105535 77 6 1.7 4.3 0.00 0.00 0.00 76 1011.8
20260905105433 77 8 1.7 4.3 0.00 0.00 0.00 76 1011.8
20260905105337 77 8 1.7 4.3 0.00 0.00 0.00 77 1011.8
20260905105233 77 8 1.7 4.3 0.00 0.00 0.00 77 1011.8
20260905105132 77 6 1.7 4.3 0.00 0.00 0.00 77 1011.8
20260905105031 77 6 1.7 4.3 0.00 0.00 0.00 77 1011.8
20260905104929 77 7 2.6 4.3 0.00 0.00 0.00 77 1011.8
20260905104828 77 10 2.6 4.3 0.00 0.00 0.00 77 1011.8
20260905104726 77 7 3.5 4.3 0.00 0.00 0.00 77 1011.8
20260905104657 77 7 3.5 4.3 0.00 0.00 0.00 77 1011.8
20260905104538 77 7 2.6 3.5 0.00 0.00 0.00 77 1011.8
20260905104436 77 10 2.6 4.3 0.00 0.00 0.00 76 1011.8
20260905104354 77 10 2.6 4.3 0.00 0.00 0.00 76 1011.8
20260905104231 77 10 2.6 4.3 0.00 0.00 0.00 77 1011.5
20260905104151 77 11 2.6 4.3 0.00 0.00 0.00 77 1011.5
20260905104029 77 10 2.6 4.3 0.00 0.00 0.00 77 1011.5
20260905103931 77 11 2.6 4.3 0.00 0.00 0.00 77 1011.5
20260905103832 77 10 2.6 4.3 0.00 0.00 0.00 77 1011.5
20260905103730 77 14 2.6 4.3 0.00 0.00 0.00 77 1011.5
20260905103629 77 13 2.6 4.3 0.00 0.00 0.00 76 1011.5
20260905103527 77 17 2.6 4.3 0.00 0.00 0.00 76 1011.5
20260905103427 77 18 2.6 4.3 0.00 0.00 0.00 76 1011.5
20260905103325 77 45 2.6 4.3 0.00 0.00 0.00 76 1011.5
20260905103255 77 88 2.6 4.3 0.00 0.00 0.00 76 1011.5
20260905103144 77 90 2.6 4.3 0.00 0.00 0.00 76 1011.5
20260905103047 77 90 2.6 4.3 0.00 0.00 0.00 76 1011.5
20260905102924 77 93 2.6 4.3 0.00 0.00 0.00 76 1011.5
20260905102826 77 93 2.6 4.3 0.00 0.00 0.00 76 1011.5
20260905102724 77 93 2.6 2.6 0.00 0.00 0.00 77 1011.5
20260905102643 77 93 2.6 2.6 0.00 0.00 0.00 77 1011.5
20260905102601 77 93 1.7 2.6 0.00 0.00 0.00 77 1011.5
20260905102439 77 90 2.6 2.6 0.00 0.00 0.00 76 1011.5
20260905102337 77 92 2.6 2.6 0.00 0.00 0.00 76 1011.5
20260905102240 77 93 1.7 2.6 0.00 0.00 0.00 76 1011.5
20260905102138 77 95 1.7 2.6 0.00 0.00 0.00 76 1011.5
20260905102037 77 92 2.6 2.6 0.00 0.00 0.00 76 1011.5
20260905101935 77 95 2.6 2.6 0.00 0.00 0.00 76 1011.5
20260905101833 77 92 2.6 2.6 0.00 0.00 0.00 76 1011.5
20260905101731 77 93 1.7 2.6 0.00 0.00 0.00 76 1011.5
20260905101659 77 95 1.7 2.6 0.00 0.00 0.00 76 1011.5
20260905101540 77 95 1.7 2.6 0.00 0.00 0.00 76 1011.5
20260905101439 77 95 1.7 2.6 0.00 0.00 0.00 77 1011.5
20260905101338 77 96 1.7 2.6 0.00 0.00 0.00 77 1011.5
20260905101238 77 96 1.7 2.6 0.00 0.00 0.00 76 1011.6
20260905101136 77 96 1.7 2.6 0.00 0.00 0.00 76 1011.6
20260905101034 77 97 2.6 2.6 0.00 0.00 0.00 76 1011.6
20260905100933 77 96 1.7 2.6 0.00 0.00 0.00 76 1011.6
20260905100836 77 96 1.7 2.6 0.00 0.00 0.00 76 1011.6
20260905100734 77 95 1.7 2.6 0.00 0.00 0.00 77 1011.6
20260905100634 77 96 1.7 2.6 0.00 0.00 0.00 77 1011.6
20260905100535 77 96 0.9 2.6 0.00 0.00 0.00 77 1011.6
20260905100434 77 96 1.7 2.6 0.00 0.00 0.00 76 1011.6
20260905100352 77 96 1.7 2.6 0.00 0.00 0.00 76 1011.6
20260905100301 77 96 1.7 2.6 0.00 0.00 0.00 76 1011.6
20260905100149 77 96 1.7 2.6 0.00 0.00 0.00 76 1011.6
20260905100032 77 96 1.7 2.6 0.00 0.00 0.00 76 1011.6
20260905095951 77 96 1.7 2.6 0.00 0.00 0.00 77 1011.6
20260905095828 77 96 1.7 2.6 0.00 0.00 0.00 77 1011.6
20260905095727 77 96 1.7 2.6 0.00 0.00 0.00 76 1011.6
20260905095625 77 96 1.7 2.6 0.00 0.00 0.00 77 1011.6
20260905095525 77 97 1.7 2.6 0.00 0.00 0.00 76 1011.6
20260905095443 77 96 1.7 2.6 0.00 0.00 0.00 76 1011.6
20260905095325 77 95 1.7 2.6 0.00 0.00 0.00 76 1011.6
20260905095226 77 96 1.7 2.6 0.00 0.00 0.00 76 1011.6
20260905095125 77 96 0.9 2.6 0.00 0.00 0.00 76 1011.6
20260905095043 77 96 1.7 2.6 0.00 0.00 0.00 76 1011.6
20260905094942 77 96 1.7 2.6 0.00 0.00 0.00 76 1011.6
20260905094840 77 96 0.9 2.6 0.00 0.00 0.00 76 1011.6
20260905094759 77 95 1.7 2.6 0.00 0.00 0.00 77 1011.6
20260905094707 77 93 1.7 2.6 0.00 0.00 0.00 77 1011.6
20260905094527 77 95 1.7 2.6 0.00 0.00 0.00 76 1011.6
20260905094426 77 95 1.7 2.6 0.00 0.00 0.00 76 1011.6
20260905094344 77 95 1.7 2.6 0.00 0.00 0.00 76 1011.6
20260905094242 77 93 0.9 2.6 0.00 0.00 0.00 76 1011.5
20260905094122 77 95 0.0 0.0 0.00 0.00 0.00 76 1011.5
20260905094024 77 93 0.0 0.0 0.00 0.00 0.00 76 1011.5
20260905093925 77 93 0.0 0.0 0.00 0.00 0.00 76 1011.5
20260905093844 77 93 0.0 0.0 0.00 0.00 0.00 76 1011.5
20260905093742 77 95 0.0 0.0 0.00 0.00 0.00 76 1011.5
20260905093641 77 93 0.0 0.0 0.00 0.00 0.00 76 1011.5
20260905093559 77 95 0.0 0.0 0.00 0.00 0.00 76 1011.5
20260905093436 77 95 0.0 0.0 0.00 0.00 0.00 76 1011.5
20260905093354 77 95 0.0 0.0 0.00 0.00 0.00 76 1011.5
20260905093242 77 95 0.0 0.0 0.00 0.00 0.00 76 1011.5
20260905093151 77 95 0.0 0.0 0.00 0.00 0.00 75 1011.5
20260905093052 77 93 0.0 0.0 0.00 0.00 0.00 75 1011.5
20260905092929 77 95 0.0 0.0 0.00 0.00 0.00 75 1011.5
20260905092826 77 93 0.0 0.0 0.00 0.00 0.00 75 1011.5
20260905092724 77 95 0.0 0.0 0.00 0.00 0.00 75 1011.4
20260905092643 77 95 0.0 0.0 0.00 0.00 0.00 75 1011.4
20260905092543 77 93 0.0 1.7 0.00 0.00 0.00 75 1011.4
20260905092501 77 93 0.0 1.7 0.00 0.00 0.00 75 1011.4
20260905092337 78 95 0.0 1.7 0.00 0.00 0.00 75 1011.4
20260905092242 78 95 0.0 2.6 0.00 0.00 0.00 75 1011.4
20260905092140 78 95 0.0 2.6 0.00 0.00 0.00 75 1011.4
20260905092038 78 93 0.0 2.6 0.00 0.00 0.00 75 1011.4
20260905091936 78 95 0.0 2.6 0.00 0.00 0.00 75 1011.4
20260905091834 78 95 0.0 2.6 0.00 0.00 0.00 75 1011.4
20260905091743 78 95 0.9 2.6 0.00 0.00 0.00 75 1011.4
20260905091652 78 93 1.7 2.6 0.00 0.00 0.00 75 1011.4
20260905091555 78 93 1.7 2.6 0.00 0.00 0.00 75 1011.4
20260905091431 78 95 1.7 2.6 0.00 0.00 0.00 75 1011.4
20260905091350 78 95 1.7 2.6 0.00 0.00 0.00 75 1011.4
20260905091229 78 96 1.7 2.6 0.00 0.00 0.00 75 1011.4
20260905091127 78 95 1.7 2.6 0.00 0.00 0.00 75 1011.4
20260905091025 78 96 1.7 2.6 0.00 0.00 0.00 75 1011.4
20260905090924 78 96 1.7 2.6 0.00 0.00 0.00 75 1011.4
20260905090828 78 95 1.7 2.6 0.00 0.00 0.00 75 1011.4
20260905090724 78 95 0.9 1.7 0.00 0.00 0.00 75 1011.4
20260905090643 78 96 0.9 1.7 0.00 0.00 0.00 75 1011.4
20260905090541 78 95 0.9 1.7 0.00 0.00 0.00 75 1011.4
20260905090440 78 95 0.9 1.7 0.00 0.00 0.00 75 1011.4
20260905090358 78 96 0.9 1.7 0.00 0.00 0.00 75 1011.4
20260905090236 78 95 0.9 1.7 0.00 0.00 0.00 75 1011.4
20260905090206 78 92 0.9 1.7 0.00 0.00 0.00 75 1011.4
20260905085943 78 95 0.0 1.7 0.00 0.00 0.00 75 1011.4
20260905085843 78 93 0.0 1.7 0.00 0.00 0.00 75 1011.4
20260905085742 78 95 0.0 1.7 0.00 0.00 0.00 75 1011.4
20260905085702 78 95 0.0 1.7 0.00 0.00 0.00 76 1011.4
20260905085539 78 95 0.0 1.7 0.00 0.00 0.00 76 1011.4
20260905085436 78 93 1.7 1.7 0.00 0.00 0.00 76 1011.4
20260905085334 78 95 1.7 1.7 0.00 0.00 0.00 76 1011.4
20260905085252 78 95 1.7 1.7 0.00 0.00 0.00 76 1011.4
20260905085132 78 96 0.9 1.7 0.00 0.00 0.00 76 1011.4
20260905085031 78 96 0.0 0.9 0.00 0.00 0.00 76 1011.4
20260905084930 78 96 0.0 0.0 0.00 0.00 0.00 76 1011.4
20260905084829 78 96 0.0 0.0 0.00 0.00 0.00 76 1011.4
20260905084738 78 95 0.0 0.0 0.00 0.00 0.00 76 1011.4
20260905084647 78 96 0.0 0.0 0.00 0.00 0.00 76 1011.4
20260905084525 78 96 0.0 0.0 0.00 0.00 0.00 76 1011.4
20260905084428 78 97 0.0 0.0 0.00 0.00 0.00 76 1011.4
20260905084328 78 95 0.0 0.0 0.00 0.00 0.00 76 1011.4
20260905084227 78 96 0.0 0.0 0.00 0.00 0.00 76 1011.4
20260905084145 78 96 0.0 0.0 0.00 0.00 0.00 76 1011.4
20260905084026 78 95 0.0 0.9 0.00 0.00 0.00 75 1011.4
20260905083925 78 96 0.0 0.9 0.00 0.00 0.00 75 1011.4
20260905083842 78 96 0.0 0.9 0.00 0.00 0.00 75 1011.4
20260905083739 78 93 0.0 0.9 0.00 0.00 0.00 75 1011.4
20260905083642 78 95 0.0 0.9 0.00 0.00 0.00 75 1011.4
20260905083540 78 95 0.0 0.9 0.00 0.00 0.00 75 1011.4
20260905083438 78 96 0.0 0.9 0.00 0.00 0.00 75 1011.4
20260905083338 78 96 0.0 0.9 0.00 0.00 0.00 75 1011.4
20260905083256 78 96 0.9 0.9 0.00 0.00 0.00 75 1011.4
20260905083228 78 97 0.0 0.9 0.00 0.00 0.00 76 1011.4
20260905083103 78 96 0.0 0.0 0.00 0.00 0.00 76 1011.4
20260905082941 78 95 0.0 0.0 0.00 0.00 0.00 76 1011.4
20260905082904 78 96 0.0 0.0 0.00 0.00 0.00 76 1011.4
20260905082741 78 96 0.0 0.0 0.00 0.00 0.00 76 1011.4
20260905082639 78 96 0.0 0.0 0.00 0.00 0.00 76 1011.4
20260905082556 78 93 0.0 0.0 0.00 0.00 0.00 76 1011.4
20260905082433 78 96 0.0 0.0 0.00 0.00 0.00 76 1011.4
20260905082331 78 96 0.0 0.0 0.00 0.00 0.00 76 1011.4
20260905082230 78 96 0.0 0.0 0.00 0.00 0.00 76 1011.4
20260905082133 78 95 0.0 0.0 0.00 0.00 0.00 76 1011.4
20260905082051 78 95 0.0 0.0 0.00 0.00 0.00 76 1011.4
20260905081930 78 95 0.0 0.0 0.00 0.00 0.00 75 1011.4
20260905081828 78 96 0.0 0.0 0.00 0.00 0.00 75 1011.4
20260905081738 78 96 0.0 0.0 0.00 0.00 0.00 75 1011.4
20260905081647 78 93 0.0 0.0 0.00 0.00 0.00 75 1011.4
20260905081546 78 97 0.0 0.0 0.00 0.00 0.00 75 1011.4
20260905081444 78 92 0.0 0.0 0.00 0.00 0.00 75 1011.4
20260905081402 78 93 0.0 0.0 0.00 0.00 0.00 75 1011.4
20260905081224 78 97 0.0 0.0 0.00 0.00 0.00 75 1011.9
20260905081142 78 93 0.0 0.0 0.00 0.00 0.00 75 1011.9
20260905081042 78 96 0.0 0.0 0.00 0.00 0.00 75 1011.9
20260905080940 78 96 0.0 0.9 0.00 0.00 0.00 75 1011.9
20260905080859 78 96 0.0 0.9 0.00 0.00 0.00 75 1011.9
20260905080736 78 95 0.0 1.7 0.00 0.00 0.00 75 1011.9
20260905080654 78 96 0.0 1.7 0.00 0.00 0.00 75 1011.9
20260905080532 78 96 0.0 1.7 0.00 0.00 0.00 75 1011.9
20260905080433 78 96 0.0 1.7 0.00 0.00 0.00 75 1011.9
20260905080332 78 96 0.0 1.7 0.00 0.00 0.00 75 1011.9
20260905080301 78 96 0.0 1.7 0.00 0.00 0.00 75 1011.9
20260905080151 78 96 0.0 1.7 0.00 0.00 0.00 75 1011.9
20260905080026 78 97 0.9 1.7 0.00 0.00 0.00 75 1011.9
20260905075925 78 95 0.9 2.6 0.00 0.00 0.00 75 1011.9
20260905075843 78 96 0.9 2.6 0.00 0.00 0.00 76 1011.9
20260905075741 78 95 0.0 2.6 0.00 0.00 0.00 76 1011.9
20260905075639 78 96 0.0 2.6 0.00 0.00 0.00 76 1011.9
20260905075543 78 96 0.0 2.6 0.00 0.00 0.00 76 1011.9
20260905075501 78 96 0.9 2.6 0.00 0.00 0.00 76 1011.9
20260905075338 78 97 0.9 2.6 0.00 0.00 0.00 76 1011.9
20260905075236 78 96 0.9 2.6 0.00 0.00 0.00 76 1011.9
20260905075134 78 95 1.7 2.6 0.00 0.00 0.00 76 1011.9
20260905075032 78 96 0.0 1.7 0.00 0.00 0.00 76 1011.9
20260905074932 78 96 0.0 1.7 0.00 0.00 0.00 76 1011.9
20260905074854 78 96 0.0 1.7 0.00 0.00 0.00 76 1011.9
20260905074733 78 96 0.0 1.7 0.00 0.00 0.00 76 1011.9
20260905074702 78 96 0.0 1.7 0.00 0.00 0.00 76 1011.9
20260905074540 78 95 0.0 1.7 0.00 0.00 0.00 76 1011.9
20260905074459 78 96 0.0 1.7 0.00 0.00 0.00 75 1011.9
20260905074357 78 96 0.0 1.7 0.00 0.00 0.00 75 1011.9
20260905074234 78 96 0.9 1.7 0.00 0.00 0.00 75 1012.0
20260905074154 78 96 0.9 1.7 0.00 0.00 0.00 75 1012.0
20260905074032 78 96 0.9 1.7 0.00 0.00 0.00 75 1012.0
20260905073934 78 96 0.0 0.9 0.00 0.00 0.00 74 1012.0
20260905073832 78 96 0.0 0.0 0.00 0.00 0.00 74 1012.0
20260905073731 78 96 0.0 0.0 0.00 0.00 0.00 74 1012.0
20260905073629 79 96 0.0 0.0 0.00 0.00 0.00 74 1012.0
20260905073529 79 96 0.0 0.0 0.00 0.00 0.00 74 1012.0
20260905073428 79 96 0.0 0.0 0.00 0.00 0.00 74 1012.0
20260905073327 79 96 0.0 0.0 0.00 0.00 0.00 74 1012.0
20260905073203 79 96 0.0 0.0 0.00 0.00 0.00 74 1012.0
20260905073040 79 96 0.0 0.0 0.00 0.00 0.00 74 1012.0
20260905072939 79 96 0.0 0.0 0.00 0.00 0.00 74 1012.0
20260905072835 79 95 0.0 0.0 0.00 0.00 0.00 74 1012.0
20260905072733 79 96 0.0 0.0 0.00 0.00 0.00 75 1012.0
20260905072632 79 96 0.0 0.0 0.00 0.00 0.00 75 1012.0
20260905072534 79 96 0.0 0.0 0.00 0.00 0.00 75 1012.0
20260905072433 79 96 0.0 0.0 0.00 0.00 0.00 75 1012.0
20260905072331 79 96 0.0 0.0 0.00 0.00 0.00 74 1012.0
20260905072228 79 96 0.0 0.0 0.00 0.00 0.00 74 1012.0
20260905072128 79 96 0.0 1.7 0.00 0.00 0.00 74 1012.0
20260905072047 79 95 0.0 1.7 0.00 0.00 0.00 74 1012.0
20260905071924 79 96 0.0 1.7 0.00 0.00 0.00 74 1012.0
20260905071826 79 96 0.0 2.6 0.00 0.00 0.00 74 1012.0
20260905071725 79 96 0.0 2.6 0.00 0.00 0.00 74 1012.0
20260905071656 79 92 0.0 2.6 0.00 0.00 0.00 74 1012.0
20260905071533 79 93 0.0 2.6 0.00 0.00 0.00 74 1012.0
20260905071431 79 95 0.0 2.6 0.00 0.00 0.00 74 1012.0
20260905071330 79 95 0.0 2.6 0.00 0.00 0.00 74 1012.0
20260905071247 79 96 1.7 2.6 0.00 0.00 0.00 74 1012.0
20260905071125 79 95 1.7 2.6 0.00 0.00 0.00 74 1012.0
20260905071027 79 95 1.7 2.6 0.00 0.00 0.00 74 1012.0
20260905070926 79 93 1.7 2.6 0.00 0.00 0.00 74 1012.0
20260905070843 79 96 0.9 2.6 0.00 0.00 0.00 74 1012.0
20260905070743 79 96 0.9 2.6 0.00 0.00 0.00 74 1012.0
20260905070701 79 95 0.9 2.6 0.00 0.00 0.00 74 1012.0
20260905070539 79 93 1.7 2.6 0.00 0.00 0.00 74 1012.0
20260905070435 79 95 1.7 2.6 0.00 0.00 0.00 74 1012.0
20260905070354 79 96 1.7 2.6 0.00 0.00 0.00 74 1012.0
20260905070235 79 96 1.7 2.6 0.00 0.00 0.00 74 1012.0
20260905070206 79 95 1.7 2.6 0.00 0.00 0.00 74 1012.0
20260905065941 79 96 0.9 2.6 0.00 0.00 0.00 74 1012.0
20260905065839 79 96 0.0 2.6 0.00 0.00 0.00 74 1012.0
20260905065758 79 96 0.0 2.6 0.00 0.00 0.00 73 1012.1
20260905065655 79 96 0.0 2.6 0.00 0.00 0.00 74 1012.1
20260905065554 79 96 0.0 2.6 0.00 0.00 0.00 73 1012.1
20260905065430 79 96 0.0 2.6 0.00 0.00 0.00 73 1012.1
20260905065333 79 95 0.0 2.6 0.00 0.00 0.00 73 1012.1
20260905065231 79 95 1.7 2.6 0.00 0.00 0.00 73 1012.1
20260905065130 79 93 0.9 2.6 0.00 0.00 0.00 73 1012.1
20260905065028 79 95 1.7 2.6 0.00 0.00 0.00 73 1012.1
20260905064927 79 93 1.7 2.6 0.00 0.00 0.00 73 1012.1
20260905064824 79 96 1.7 2.6 0.00 0.00 0.00 73 1012.1
20260905064727 79 96 1.7 2.6 0.00 0.00 0.00 73 1012.1
20260905064659 79 96 1.7 2.6 0.00 0.00 0.00 74 1012.1
20260905064556 79 96 1.7 2.6 0.00 0.00 0.00 74 1012.1
20260905064434 79 95 0.9 2.6 0.00 0.00 0.00 74 1012.1
20260905064333 79 95 0.9 2.6 0.00 0.00 0.00 74 1012.1
20260905064231 79 95 1.7 2.6 0.00 0.00 0.00 74 1012.3
20260905064150 79 93 1.7 2.6 0.00 0.00 0.00 74 1012.3
20260905064029 79 95 0.9 2.6 0.00 0.00 0.00 74 1012.3
20260905063929 79 95 0.9 2.6 0.00 0.00 0.00 74 1012.3
20260905063830 79 95 1.7 2.6 0.00 0.00 0.00 74 1012.3
20260905063728 79 93 0.9 1.7 0.00 0.00 0.00 74 1012.3
20260905063627 79 93 1.7 1.7 0.00 0.00 0.00 74 1012.3
20260905063525 79 93 0.9 1.7 0.00 0.00 0.00 74 1012.3
20260905063424 79 93 0.0 1.7 0.00 0.00 0.00 74 1012.3
20260905063343 79 93 0.0 1.7 0.00 0.00 0.00 74 1012.3
20260905063236 79 92 0.0 1.7 0.00 0.00 0.00 73 1012.3
20260905063147 79 93 0.0 1.7 0.00 0.00 0.00 73 1012.3
20260905063042 79 92 0.9 1.7 0.00 0.00 0.00 73 1012.3
20260905062941 79 93 0.9 1.7 0.00 0.00 0.00 73 1012.3
20260905062839 79 93 0.9 1.7 0.00 0.00 0.00 73 1012.3
20260905062738 79 93 0.9 2.6 0.00 0.00 0.00 73 1012.4
20260905062636 79 93 1.7 2.6 0.00 0.00 0.00 73 1012.4
20260905062534 79 93 1.7 2.6 0.00 0.00 0.00 73 1012.4
20260905062436 79 93 1.7 2.6 0.00 0.00 0.00 73 1012.4
20260905062355 79 95 0.9 2.6 0.00 0.00 0.00 72 1012.4
20260905062232 79 93 0.0 2.6 0.00 0.00 0.00 72 1012.4
20260905062131 79 93 0.9 2.6 0.00 0.00 0.00 72 1012.4
20260905062029 79 93 0.9 2.6 0.00 0.00 0.00 72 1012.4
20260905061928 79 93 0.9 2.6 0.00 0.00 0.00 72 1012.4
20260905061826 79 93 1.7 2.6 0.00 0.00 0.00 72 1012.4
20260905061738 79 93 1.7 1.7 0.00 0.00 0.00 72 1012.4
20260905061647 79 93 0.9 1.7 0.00 0.00 0.00 72 1012.4
20260905061525 79 93 0.0 1.7 0.00 0.00 0.00 72 1012.4
20260905061424 79 92 0.9 2.6 0.00 0.00 0.00 72 1012.4
20260905061343 79 96 0.0 2.6 0.00 0.00 0.00 72 1012.4
20260905061241 79 96 0.0 2.6 0.00 0.00 0.00 72 1012.4
20260905061139 80 97 0.0 2.6 0.00 0.00 0.00 73 1012.4
20260905061038 80 95 0.0 2.6 0.00 0.00 0.00 73 1012.4
20260905061001 80 96 0.0 2.6 0.00 0.00 0.00 73 1012.4
20260905060837 80 97 0.9 2.6 0.00 0.00 0.00 73 1012.4
20260905060736 80 97 0.9 2.6 0.00 0.00 0.00 73 1012.4
20260905060655 80 96 1.7 2.6 0.00 0.00 0.00 73 1012.4
20260905060531 80 96 0.9 2.6 0.00 0.00 0.00 73 1012.4
20260905060430 80 97 1.7 2.6 0.00 0.00 0.00 72 1012.4
20260905060326 80 97 1.7 2.6 0.00 0.00 0.00 72 1012.4
20260905060236 80 97 1.7 2.6 0.00 0.00 0.00 72 1012.4
20260905060148 80 99 0.9 2.6 0.00 0.00 0.00 72 1012.4
20260905060025 80 97 0.9 2.6 0.00 0.00 0.00 72 1012.4
20260905055943 80 95 0.9 2.6 0.00 0.00 0.00 72 1012.4
20260905055842 80 97 0.9 2.6 0.00 0.00 0.00 72 1012.4
20260905055740 80 96 1.7 2.6 0.00 0.00 0.00 72 1012.5
20260905055639 80 97 1.7 2.6 0.00 0.00 0.00 72 1012.5
20260905055538 80 97 0.9 2.6 0.00 0.00 0.00 72 1012.5
20260905055440 80 97 0.9 2.6 0.00 0.00 0.00 72 1012.5
20260905055339 80 97 1.7 3.5 0.00 0.00 0.00 72 1012.5
20260905055257 80 97 1.7 3.5 0.00 0.00 0.00 72 1012.5
20260905055133 80 97 1.7 3.5 0.00 0.00 0.00 72 1012.5
20260905055032 80 97 1.7 3.5 0.00 0.00 0.00 72 1012.5
20260905054930 80 97 2.6 3.5 0.00 0.00 0.00 73 1012.5
20260905054828 80 99 2.6 3.5 0.00 0.00 0.00 73 1012.5
20260905054735 80 97 1.7 3.5 0.00 0.00 0.00 72 1012.5
20260905054649 80 97 1.7 4.3 0.00 0.00 0.00 72 1012.5
20260905054546 80 97 2.6 4.3 0.00 0.00 0.00 72 1012.5
20260905054505 80 97 1.7 4.3 0.00 0.00 0.00 72 1012.5
20260905054403 80 97 1.7 4.3 0.00 0.00 0.00 72 1012.5
20260905054240 80 97 1.7 4.3 0.00 0.00 0.00 72 1012.5
20260905054138 80 95 1.7 4.3 0.00 0.00 0.00 72 1012.5
20260905054037 80 97 1.7 4.3 0.00 0.00 0.00 72 1012.5
20260905053935 80 97 2.6 4.3 0.00 0.00 0.00 72 1012.5
20260905053837 80 96 3.5 4.3 0.00 0.00 0.00 72 1012.5
20260905053735 80 97 3.5 4.3 0.00 0.00 0.00 73 1012.5
20260905053634 80 97 2.6 4.3 0.00 0.00 0.00 72 1012.5
20260905053532 80 93 3.5 4.3 0.00 0.00 0.00 72 1012.5
20260905053431 80 97 3.5 4.3 0.00 0.00 0.00 72 1012.5
20260905053328 80 90 3.5 4.3 0.00 0.00 0.00 72 1012.5
20260905053227 80 97 2.6 4.3 0.00 0.00 0.00 72 1012.5
20260905053157 80 96 2.6 4.3 0.00 0.00 0.00 72 1012.5
20260905053038 80 95 2.6 4.3 0.00 0.00 0.00 72 1012.5
20260905052937 80 96 1.7 4.3 0.00 0.00 0.00 72 1012.5
20260905052834 80 96 1.7 4.3 0.00 0.00 0.00 72 1012.5
20260905052733 80 96 2.6 4.3 0.00 0.00 0.00 72 1012.4
20260905052633 80 97 2.6 4.3 0.00 0.00 0.00 72 1012.4
20260905052530 80 97 1.7 4.3 0.00 0.00 0.00 71 1012.4
20260905052449 80 96 2.6 4.3 0.00 0.00 0.00 71 1012.4
20260905052351 80 95 3.5 4.3 0.00 0.00 0.00 71 1012.4
20260905052229 80 96 2.6 4.3 0.00 0.00 0.00 71 1012.4
20260905052126 80 96 3.5 4.3 0.00 0.00 0.00 71 1012.4
20260905052024 80 95 3.5 4.3 0.00 0.00 0.00 71 1012.4
20260905051942 80 96 3.5 4.3 0.00 0.00 0.00 71 1012.4
20260905051901 80 96 2.6 4.3 0.00 0.00 0.00 71 1012.4
20260905051759 80 96 2.6 4.3 0.00 0.00 0.00 71 1012.4
20260905051646 80 96 2.6 5.2 0.00 0.00 0.00 71 1012.4
20260905051543 80 96 1.7 5.2 0.00 0.00 0.00 71 1012.4
20260905051445 80 97 2.6 5.2 0.00 0.00 0.00 72 1012.4
20260905051346 80 96 2.6 5.2 0.00 0.00 0.00 71 1012.4
20260905051224 80 96 3.5 5.2 0.00 0.00 0.00 71 1012.8
20260905051143 80 96 2.6 5.2 0.00 0.00 0.00 71 1012.8
20260905051041 80 95 3.5 5.2 0.00 0.00 0.00 71 1012.8
20260905050940 80 95 2.6 5.2 0.00 0.00 0.00 72 1012.8
20260905050839 80 93 2.6 5.2 0.00 0.00 0.00 72 1012.8
20260905050737 80 93 3.5 5.2 0.00 0.00 0.00 71 1012.8
20260905050639 80 90 3.5 5.2 0.00 0.00 0.00 71 1012.8
20260905050536 80 86 3.5 5.2 0.00 0.00 0.00 72 1012.8
20260905050435 80 86 3.5 5.2 0.00 0.00 0.00 71 1012.8
20260905050334 80 86 2.6 5.2 0.00 0.00 0.00 71 1012.8
20260905050243 80 86 4.3 5.2 0.00 0.00 0.00 71 1012.8
20260905050153 80 85 3.5 5.2 0.00 0.00 0.00 71 1012.8
20260905050030 80 80 4.3 5.2 0.00 0.00 0.00 71 1012.8
20260905045932 80 83 4.3 5.2 0.00 0.00 0.00 71 1012.8
20260905045831 80 83 4.3 5.2 0.00 0.00 0.00 71 1012.8
20260905045729 80 82 4.3 5.2 0.00 0.00 0.00 71 1012.8
20260905045627 80 78 3.5 5.2 0.00 0.00 0.00 71 1012.8
20260905045545 80 79 3.5 5.2 0.00 0.00 0.00 71 1012.8
20260905045503 80 79 3.5 5.2 0.00 0.00 0.00 71 1012.8
20260905045401 80 79 4.3 5.2 0.00 0.00 0.00 71 1012.8
20260905045237 80 79 3.5 5.2 0.00 0.00 0.00 71 1012.8
20260905045140 80 78 2.6 5.2 0.00 0.00 0.00 71 1012.8
20260905045039 80 78 2.6 5.2 0.00 0.00 0.00 71 1012.8
20260905044937 80 78 3.5 5.2 0.00 0.00 0.00 71 1012.8
20260905044836 80 78 3.5 5.2 0.00 0.00 0.00 71 1012.8
20260905044804 80 78 3.5 5.2 0.00 0.00 0.00 71 1012.8
20260905044651 80 78 4.3 6.1 0.00 0.00 0.00 71 1012.8
20260905044529 80 76 3.5 6.1 0.00 0.00 0.00 71 1012.8
20260905044432 80 76 3.5 6.1 0.00 0.00 0.00 71 1012.8
20260905044330 80 78 4.3 6.1 0.00 0.00 0.00 70 1012.8
20260905044226 80 78 2.6 6.1 0.00 0.00 0.00 70 1012.8
20260905044124 80 78 3.5 6.1 0.00 0.00 0.00 70 1012.8
20260905044042 80 75 2.6 6.1 0.00 0.00 0.00 70 1012.8
20260905044000 80 78 2.6 6.1 0.00 0.00 0.00 71 1012.8
20260905043837 80 76 3.5 6.1 0.00 0.00 0.00 71 1012.8
20260905043736 80 78 4.3 6.1 0.00 0.00 0.00 70 1012.8
20260905043640 80 76 2.6 5.2 0.00 0.00 0.00 71 1012.8
20260905043539 80 75 2.6 5.2 0.00 0.00 0.00 70 1012.8
20260905043438 80 75 4.3 5.2 0.00 0.00 0.00 70 1012.8
20260905043336 80 75 4.3 5.2 0.00 0.00 0.00 70 1012.8
20260905043254 80 73 3.5 5.2 0.00 0.00 0.00 70 1012.8
20260905043205 80 75 3.5 6.1 0.00 0.00 0.00 70 1012.8
20260905043041 80 69 4.3 6.1 0.00 0.00 0.00 70 1012.8
20260905043000 79 73 4.3 6.1 0.00 0.00 0.00 70 1012.8
20260905042841 79 72 3.5 6.1 0.00 0.00 0.00 70 1012.8
20260905042800 79 72 4.3 6.1 0.00 0.00 0.00 70 1012.8
20260905042642 79 71 4.3 6.1 0.00 0.00 0.00 70 1012.8
20260905042542 79 69 5.2 6.1 0.00 0.00 0.00 70 1012.8
20260905042440 79 71 4.3 6.1 0.00 0.00 0.00 70 1012.8
20260905042338 79 71 5.2 6.1 0.00 0.00 0.00 70 1012.8
20260905042236 80 71 4.3 5.2 0.00 0.00 0.00 70 1012.8
20260905042139 80 71 4.3 5.2 0.00 0.00 0.00 69 1012.8
20260905042037 80 71 3.5 5.2 0.00 0.00 0.00 69 1012.8
20260905041935 80 71 3.5 5.2 0.00 0.00 0.00 70 1012.8
20260905041832 80 71 3.5 5.2 0.00 0.00 0.00 70 1012.8
20260905041741 80 71 4.3 5.2 0.00 0.00 0.00 71 1012.8
20260905041649 80 69 5.2 5.2 0.00 0.00 0.00 71 1012.8
20260905041526 80 71 5.2 5.2 0.00 0.00 0.00 71 1012.8
20260905041424 80 69 3.5 5.2 0.00 0.00 0.00 71 1012.8
20260905041346 80 69 4.3 5.2 0.00 0.00 0.00 70 1012.8
20260905041305 80 68 5.2 5.2 0.00 0.00 0.00 70 1012.9
20260905041141 80 69 4.3 5.2 0.00 0.00 0.00 70 1012.9
20260905041101 80 69 4.3 5.2 0.00 0.00 0.00 70 1012.9
20260905040938 80 71 5.2 5.2 0.00 0.00 0.00 70 1012.9
20260905040856 80 71 4.3 5.2 0.00 0.00 0.00 70 1012.9
20260905040734 80 69 4.3 5.2 0.00 0.00 0.00 69 1012.9
20260905040652 80 69 4.3 5.2 0.00 0.00 0.00 69 1012.9
20260905040528 80 69 4.3 5.2 0.00 0.00 0.00 69 1012.9
20260905040425 80 69 4.3 5.2 0.00 0.00 0.00 69 1012.9
20260905040347 80 66 4.3 5.2 0.00 0.00 0.00 70 1012.9
20260905040244 80 68 4.3 5.2 0.00 0.00 0.00 70 1012.9
20260905040155 80 69 4.3 5.2 0.00 0.00 0.00 70 1012.9
20260905040050 80 66 4.3 5.2 0.00 0.00 0.00 70 1012.9
20260905035930 80 69 4.3 5.2 0.00 0.00 0.00 70 1012.9
20260905035829 80 68 4.3 5.2 0.00 0.00 0.00 70 1012.9
20260905035726 80 69 3.5 5.2 0.00 0.00 0.00 70 1013.1
20260905035625 80 68 4.3 5.2 0.00 0.00 0.00 70 1013.1
20260905035542 80 69 4.3 5.2 0.00 0.00 0.00 71 1013.1
20260905035442 80 69 4.3 5.2 0.00 0.00 0.00 71 1013.1
20260905035340 80 66 3.5 5.2 0.00 0.00 0.00 70 1013.1
20260905035239 80 69 4.3 5.2 0.00 0.00 0.00 71 1013.1
20260905035138 80 68 5.2 5.2 0.00 0.00 0.00 71 1013.1
20260905035036 80 69 4.3 5.2 0.00 0.00 0.00 71 1013.1
20260905034935 80 66 3.5 5.2 0.00 0.00 0.00 71 1013.1
20260905034833 80 62 5.2 5.2 0.00 0.00 0.00 71 1013.1
20260905034726 80 61 3.5 5.2 0.00 0.00 0.00 71 1013.1
20260905034603 80 61 4.3 5.2 0.00 0.00 0.00 71 1013.1
20260905034443 80 59 4.3 5.2 0.00 0.00 0.00 71 1013.1
20260905034339 80 59 4.3 5.2 0.00 0.00 0.00 70 1013.1
20260905034259 80 58 4.3 5.2 0.00 0.00 0.00 70 1013.2
20260905034135 80 59 4.3 5.2 0.00 0.00 0.00 71 1013.2
20260905034033 80 59 4.3 6.1 0.00 0.00 0.00 71 1013.2
20260905033931 80 59 5.2 6.1 0.00 0.00 0.00 71 1013.2
20260905033833 80 59 4.3 6.1 0.00 0.00 0.00 71 1013.2
20260905033731 80 59 3.5 6.1 0.00 0.00 0.00 71 1013.2
20260905033629 80 59 5.2 6.1 0.00 0.00 0.00 71 1013.2
20260905033549 80 52 4.3 6.1 0.00 0.00 0.00 71 1013.2
20260905033425 80 52 4.3 6.1 0.00 0.00 0.00 71 1013.2
20260905033344 80 49 4.3 6.1 0.00 0.00 0.00 71 1013.2
20260905033241 80 52 4.3 6.1 0.00 0.00 0.00 71 1013.2
20260905033212 80 52 3.5 6.1 0.00 0.00 0.00 71 1013.2
20260905033027 80 49 4.3 5.2 0.00 0.00 0.00 71 1013.2
20260905032949 80 51 3.5 5.2 0.00 0.00 0.00 71 1013.2
20260905032826 80 51 4.3 5.2 0.00 0.00 0.00 71 1013.2
20260905032725 80 51 3.5 5.2 0.00 0.00 0.00 70 1013.3
20260905032643 80 48 4.3 5.2 0.00 0.00 0.00 70 1013.3
20260905032541 80 51 4.3 5.2 0.00 0.00 0.00 70 1013.3
20260905032500 80 51 3.5 5.2 0.00 0.00 0.00 69 1013.3
20260905032337 80 51 4.3 5.2 0.00 0.00 0.00 69 1013.3
20260905032236 80 49 3.5 5.2 0.00 0.00 0.00 69 1013.3
20260905032138 80 51 4.3 5.2 0.00 0.00 0.00 69 1013.3
20260905032036 80 51 4.3 5.2 0.00 0.00 0.00 70 1013.3
20260905031957 80 40 4.3 5.2 0.00 0.00 0.00 70 1013.3
20260905031835 80 40 4.3 5.2 0.00 0.00 0.00 70 1013.3
20260905031753 80 34 3.5 4.3 0.00 0.00 0.00 70 1013.3
20260905031723 80 37 1.7 2.6 0.00 0.00 0.00 70 1013.3
20260905031541 80 37 1.7 2.6 0.00 0.00 0.00 70 1013.3
20260905031501 80 37 1.7 2.6 0.00 0.00 0.00 70 1013.3
20260905031343 80 37 1.7 4.3 0.00 0.00 0.00 70 1013.3
20260905031243 80 37 1.7 4.3 0.00 0.00 0.00 70 1012.6
20260905031124 80 37 1.7 4.3 0.00 0.00 0.00 70 1012.6
20260905031026 80 34 1.7 4.3 0.00 0.00 0.00 70 1012.6
20260905030929 80 35 1.7 4.3 0.00 0.00 0.00 70 1012.6
20260905030829 80 35 2.6 4.3 0.00 0.00 0.00 70 1012.6
20260905030733 80 37 1.7 4.3 0.00 0.00 0.00 70 1012.6
20260905030633 80 37 1.7 4.3 0.00 0.00 0.00 70 1012.6
20260905030552 80 37 2.6 4.3 0.00 0.00 0.00 70 1012.6
20260905030431 80 37 2.6 4.3 0.00 0.00 0.00 70 1012.6
20260905030330 80 37 2.6 4.3 0.00 0.00 0.00 69 1012.6
20260905030230 80 35 2.6 4.3 0.00 0.00 0.00 69 1012.6
20260905030201 80 37 2.6 4.3 0.00 0.00 0.00 68 1012.6
20260905030037 80 38 2.6 4.3 0.00 0.00 0.00 68 1012.6
20260905025942 80 38 2.6 4.3 0.00 0.00 0.00 68 1012.6
20260905025841 80 35 2.6 4.3 0.00 0.00 0.00 68 1012.6
20260905025739 80 34 2.6 4.3 0.00 0.00 0.00 68 1012.6
20260905025639 80 38 2.6 4.3 0.00 0.00 0.00 68 1012.6
20260905025537 80 37 2.6 4.3 0.00 0.00 0.00 68 1012.6
20260905025456 80 38 2.6 4.3 0.00 0.00 0.00 68 1012.6
20260905025333 80 34 2.6 4.3 0.00 0.00 0.00 69 1012.6
20260905025235 80 38 3.5 4.3 0.00 0.00 0.00 69 1012.6
20260905025134 80 38 2.6 4.3 0.00 0.00 0.00 69 1012.6
20260905025032 80 38 2.6 4.3 0.00 0.00 0.00 68 1012.6
20260905024931 81 35 2.6 4.3 0.00 0.00 0.00 69 1012.6
20260905024849 81 35 2.6 4.3 0.00 0.00 0.00 69 1012.6
20260905024747 81 37 2.6 2.6 0.00 0.00 0.00 69 1012.6
20260905024717 81 35 2.6 2.6 0.00 0.00 0.00 69 1012.6
20260905024616 81 37 2.6 2.6 0.00 0.00 0.00 69 1012.6
20260905024444 81 37 2.6 5.2 0.00 0.00 0.00 69 1012.6
20260905024401 81 38 3.5 5.2 0.00 0.00 0.00 70 1012.6
20260905024240 81 38 4.3 5.2 0.00 0.00 0.00 70 1012.7
20260905024138 81 37 4.3 5.2 0.00 0.00 0.00 69 1012.7
20260905024041 81 38 4.3 5.2 0.00 0.00 0.00 69 1012.7
20260905023941 81 38 4.3 5.2 0.00 0.00 0.00 69 1012.7
20260905023839 81 38 3.5 4.3 0.00 0.00 0.00 69 1012.7
20260905023738 81 37 3.5 4.3 0.00 0.00 0.00 69 1012.7
20260905023656 81 37 3.5 4.3 0.00 0.00 0.00 69 1012.7
20260905023555 81 37 3.5 4.3 0.00 0.00 0.00 69 1012.7
20260905023451 81 37 4.3 4.3 0.00 0.00 0.00 69 1012.7
20260905023329 81 37 3.5 4.3 0.00 0.00 0.00 69 1012.7
20260905023231 81 38 2.6 4.3 0.00 0.00 0.00 69 1012.7
20260905023202 81 37 2.6 4.3 0.00 0.00 0.00 69 1012.7
20260905023038 81 38 2.6 4.3 0.00 0.00 0.00 69 1012.7
20260905022937 81 32 1.7 4.3 0.00 0.00 0.00 69 1012.7
20260905022834 81 37 2.6 4.3 0.00 0.00 0.00 69 1012.7
20260905022733 81 37 2.6 4.3 0.00 0.00 0.00 69 1012.6
20260905022633 81 38 3.5 4.3 0.00 0.00 0.00 69 1012.6
20260905022535 81 35 2.6 4.3 0.00 0.00 0.00 69 1012.6
20260905022433 81 34 1.7 4.3 0.00 0.00 0.00 69 1012.6
20260905022331 81 34 1.7 4.3 0.00 0.00 0.00 69 1012.6
20260905022230 81 34 2.6 4.3 0.00 0.00 0.00 69 1012.6
20260905022129 81 34 1.7 4.3 0.00 0.00 0.00 68 1012.6
20260905022048 81 32 1.7 4.3 0.00 0.00 0.00 69 1012.6
20260905021945 81 34 2.6 4.3 0.00 0.00 0.00 69 1012.6
20260905021904 81 34 2.6 4.3 0.00 0.00 0.00 69 1012.6
20260905021801 81 24 2.6 4.3 0.00 0.00 0.00 69 1012.6
20260905021714 81 30 2.6 4.3 0.00 0.00 0.00 69 1012.6
20260905021531 81 27 2.6 3.5 0.00 0.00 0.00 68 1012.6
20260905021450 81 28 2.6 3.5 0.00 0.00 0.00 68 1012.6
20260905021327 81 28 2.6 4.3 0.00 0.00 0.00 69 1012.6
20260905021245 81 28 1.7 4.3 0.00 0.00 0.00 69 1012.7
20260905021204 81 28 1.7 4.3 0.00 0.00 0.00 69 1012.7
20260905021040 81 28 1.7 4.3 0.00 0.00 0.00 69 1012.7
20260905020939 81 28 1.7 4.3 0.00 0.00 0.00 68 1012.7
20260905020837 81 27 1.7 4.3 0.00 0.00 0.00 68 1012.7
20260905020738 81 28 2.6 4.3 0.00 0.00 0.00 68 1012.7
20260905020637 81 27 2.6 4.3 0.00 0.00 0.00 68 1012.7
20260905020556 81 28 3.5 4.3 0.00 0.00 0.00 67 1012.7
20260905020432 81 25 3.5 4.3 0.00 0.00 0.00 67 1012.7
20260905020331 81 27 2.6 4.3 0.00 0.00 0.00 67 1012.7
20260905020238 81 27 2.6 4.3 0.00 0.00 0.00 68 1012.7
20260905020148 81 28 2.6 4.3 0.00 0.00 0.00 67 1012.7
20260905020026 81 27 2.6 4.3 0.00 0.00 0.00 67 1012.7
20260905015949 81 27 2.6 4.3 0.00 0.00 0.00 67 1012.7
20260905015826 81 28 2.6 4.3 0.00 0.00 0.00 66 1012.7
20260905015725 81 27 2.6 4.3 0.00 0.00 0.00 66 1012.5
20260905015643 81 25 2.6 4.3 0.00 0.00 0.00 66 1012.5
20260905015541 81 28 2.6 4.3 0.00 0.00 0.00 65 1012.5
20260905015439 81 25 3.5 4.3 0.00 0.00 0.00 66 1012.5
20260905015336 81 28 3.5 4.3 0.00 0.00 0.00 66 1012.5
20260905015236 81 28 3.5 4.3 0.00 0.00 0.00 66 1012.5
20260905015137 81 24 2.6 4.3 0.00 0.00 0.00 66 1012.5
20260905015036 81 28 3.5 4.3 0.00 0.00 0.00 66 1012.5
20260905014934 81 28 3.5 4.3 0.00 0.00 0.00 66 1012.5
20260905014851 81 28 2.6 4.3 0.00 0.00 0.00 66 1012.5
20260905014729 82 28 2.6 4.3 0.00 0.00 0.00 66 1012.5
20260905014659 82 25 3.5 4.3 0.00 0.00 0.00 66 1012.5
20260905014537 82 27 3.5 4.3 0.00 0.00 0.00 66 1012.5
20260905014440 82 27 3.5 4.3 0.00 0.00 0.00 67 1012.5
20260905014339 82 28 3.5 4.3 0.00 0.00 0.00 67 1012.5
20260905014258 82 27 3.5 4.3 0.00 0.00 0.00 67 1012.5
20260905014136 82 24 3.5 4.3 0.00 0.00 0.00 68 1012.5
20260905014038 82 25 2.6 4.3 0.00 0.00 0.00 68 1012.5
20260905013957 82 27 3.5 4.3 0.00 0.00 0.00 68 1012.5
20260905013834 82 24 3.5 5.2 0.00 0.00 0.00 68 1012.5
20260905013735 82 24 2.6 5.2 0.00 0.00 0.00 67 1012.5
20260905013637 82 27 2.6 5.2 0.00 0.00 0.00 68 1012.5
20260905013536 82 24 1.7 5.2 0.00 0.00 0.00 68 1012.5
20260905013435 82 24 1.7 5.2 0.00 0.00 0.00 68 1012.5
20260905013334 82 25 2.6 5.2 0.00 0.00 0.00 68 1012.5
20260905013241 82 23 2.6 5.2 0.00 0.00 0.00 67 1012.5
20260905013151 82 24 2.6 5.2 0.00 0.00 0.00 67 1012.5
20260905013027 82 25 3.5 5.2 0.00 0.00 0.00 67 1012.5
20260905012929 82 25 4.3 5.2 0.00 0.00 0.00 67 1012.5
20260905012828 82 25 4.3 5.2 0.00 0.00 0.00 66 1012.5
20260905012727 82 24 4.3 5.2 0.00 0.00 0.00 66 1012.4
20260905012626 82 23 3.5 5.2 0.00 0.00 0.00 66 1012.4
20260905012548 82 23 3.5 5.2 0.00 0.00 0.00 65 1012.4
20260905012425 82 24 4.3 5.2 0.00 0.00 0.00 65 1012.4
20260905012343 82 23 4.3 5.2 0.00 0.00 0.00 65 1012.4
20260905012225 82 23 4.3 5.2 0.00 0.00 0.00 65 1012.4
20260905012143 82 23 3.5 5.2 0.00 0.00 0.00 65 1012.4
20260905012042 82 23 2.6 5.2 0.00 0.00 0.00 65 1012.4
20260905011940 82 23 2.6 5.2 0.00 0.00 0.00 65 1012.4
20260905011839 82 23 3.5 5.2 0.00 0.00 0.00 65 1012.4
20260905011757 82 23 3.5 5.2 0.00 0.00 0.00 65 1012.4
20260905011727 82 23 3.5 5.2 0.00 0.00 0.00 64 1012.4
20260905011541 82 23 3.5 5.2 0.00 0.00 0.00 64 1012.4
20260905011424 82 24 2.6 5.2 0.00 0.00 0.00 64 1012.4
20260905011343 82 23 2.6 5.2 0.00 0.00 0.00 64 1012.4
20260905011240 82 21 2.6 5.2 0.00 0.00 0.00 64 1012.5
20260905011139 82 23 3.5 5.2 0.00 0.00 0.00 64 1012.5
20260905011037 82 23 2.6 5.2 0.00 0.00 0.00 64 1012.5
20260905010934 82 21 3.5 5.2 0.00 0.00 0.00 64 1012.5
20260905010832 82 23 2.6 5.2 0.00 0.00 0.00 64 1012.5
20260905010731 82 20 2.6 5.2 0.00 0.00 0.00 64 1012.5
20260905010635 82 21 3.5 5.2 0.00 0.00 0.00 64 1012.5
20260905010532 82 23 3.5 5.2 0.00 0.00 0.00 64 1012.5
20260905010430 82 23 4.3 5.2 0.00 0.00 0.00 64 1012.5
20260905010328 82 23 2.6 5.2 0.00 0.00 0.00 64 1012.5
20260905010237 82 20 4.3 5.2 0.00 0.00 0.00 65 1012.5
20260905010148 82 17 4.3 5.2 0.00 0.00 0.00 65 1012.5
20260905010024 82 13 2.6 5.2 0.00 0.00 0.00 65 1012.5
20260905005927 82 14 2.6 5.2 0.00 0.00 0.00 65 1012.5
20260905005824 82 14 3.5 5.2 0.00 0.00 0.00 65 1012.5
20260905005743 82 14 3.5 5.2 0.00 0.00 0.00 65 1012.5
20260905005640 82 14 2.6 5.2 0.00 0.00 0.00 65 1012.5
20260905005540 82 11 3.5 5.2 0.00 0.00 0.00 64 1012.5
20260905005439 82 13 2.6 5.2 0.00 0.00 0.00 64 1012.5
20260905005338 82 14 2.6 5.2 0.00 0.00 0.00 64 1012.5
20260905005257 82 14 3.5 5.2 0.00 0.00 0.00 65 1012.5
20260905005139 82 14 2.6 5.2 0.00 0.00 0.00 65 1012.5
20260905005037 82 14 3.5 5.2 0.00 0.00 0.00 65 1012.5
20260905004937 82 13 3.5 5.2 0.00 0.00 0.00 65 1012.5
20260905004836 82 8 3.5 5.2 0.00 0.00 0.00 64 1012.5
20260905004734 82 13 3.5 5.2 0.00 0.00 0.00 64 1012.5
20260905004704 82 13 2.6 5.2 0.00 0.00 0.00 64 1012.5
20260905004543 82 13 3.5 5.2 0.00 0.00 0.00 64 1012.5
20260905004441 82 11 3.5 5.2 0.00 0.00 0.00 64 1012.5
20260905004404 82 10 3.5 5.2 0.00 0.00 0.00 64 1012.5
20260905004301 82 11 3.5 5.2 0.00 0.00 0.00 64 1012.5
20260905004158 82 10 3.5 5.2 0.00 0.00 0.00 64 1012.5
20260905004036 82 11 4.3 5.2 0.00 0.00 0.00 64 1012.5
20260905003934 82 10 4.3 5.2 0.00 0.00 0.00 64 1012.5
20260905003853 82 11 4.3 5.2 0.00 0.00 0.00 64 1012.5
20260905003730 82 10 4.3 5.2 0.00 0.00 0.00 64 1012.5
20260905003629 82 11 4.3 5.2 0.00 0.00 0.00 64 1012.5
20260905003531 82 7 3.5 4.3 0.00 0.00 0.00 64 1012.5
20260905003430 82 8 3.5 4.3 0.00 0.00 0.00 64 1012.5
20260905003328 82 8 2.6 4.3 0.00 0.00 0.00 64 1012.5
20260905003238 82 7 3.5 4.3 0.00 0.00 0.00 64 1012.5
20260905003147 82 7 4.3 4.3 0.00 0.00 0.00 64 1012.5
20260905003027 82 7 3.5 4.3 0.00 0.00 0.00 64 1012.5
20260905002925 82 7 2.6 4.3 0.00 0.00 0.00 65 1012.5
20260905002826 82 7 2.6 4.3 0.00 0.00 0.00 65 1012.5
20260905002745 82 6 2.6 4.3 0.00 0.00 0.00 65 1012.4
20260905002643 82 6 2.6 4.3 0.00 0.00 0.00 65 1012.4
20260905002543 82 8 2.6 4.3 0.00 0.00 0.00 65 1012.4
20260905002442 82 7 2.6 4.3 0.00 0.00 0.00 65 1012.4
20260905002339 82 7 2.6 4.3 0.00 0.00 0.00 65 1012.4
20260905002239 82 7 2.6 3.5 0.00 0.00 0.00 65 1012.4
20260905002135 82 7 2.6 3.5 0.00 0.00 0.00 65 1012.4
20260905002053 82 7 2.6 3.5 0.00 0.00 0.00 65 1012.4
20260905001935 82 7 2.6 3.5 0.00 0.00 0.00 65 1012.4
20260905001833 82 6 2.6 3.5 0.00 0.00 0.00 65 1012.4
20260905001743 82 7 1.7 3.5 0.00 0.00 0.00 65 1012.4
20260905001652 82 8 2.6 3.5 0.00 0.00 0.00 65 1012.4
20260905001529 82 3 2.6 3.5 0.00 0.00 0.00 64 1012.4
20260905001428 83 7 2.6 3.5 0.00 0.00 0.00 64 1012.4
20260905001326 83 7 2.6 4.3 0.00 0.00 0.00 64 1012.4
20260905001230 83 6 2.6 4.3 0.00 0.00 0.00 64 1012.4
20260905001129 83 7 2.6 4.3 0.00 0.00 0.00 64 1012.4
20260905001028 83 7 2.6 4.3 0.00 0.00 0.00 64 1012.4
20260905000925 83 7 2.6 4.3 0.00 0.00 0.00 64 1012.4
20260905000844 83 7 2.6 4.3 0.00 0.00 0.00 64 1012.4
20260905000802 83 7 2.6 4.3 0.00 0.00 0.00 64 1012.4
20260905000700 83 6 2.6 4.3 0.00 0.00 0.00 64 1012.4
20260905000557 83 7 2.6 5.2 0.00 0.00 0.00 64 1012.4
20260905000454 83 6 3.5 5.2 0.00 0.00 0.00 64 1012.4
20260905000356 83 7 2.6 5.2 0.00 0.00 0.00 64 1012.4
20260905000234 83 7 2.6 5.2 0.00 0.00 0.00 64 1012.4
20260905000205 83 7 3.5 5.2 0.00 0.00 0.00 64 1012.4
20260905000041 83 7 4.3 5.2 0.00 0.00 0.00 65 1012.4
20260904235939 83 8 4.3 5.2 0.00 0.00 0.00 65 1012.4
20260904235837 83 7 3.5 5.2 0.00 0.00 0.00 65 1012.4
20260904235737 83 4 3.5 5.2 0.00 0.00 0.00 64 1012.4
20260904235640 83 8 2.6 4.3 0.00 0.00 0.00 64 1012.4
20260904235538 83 8 2.6 4.3 0.00 0.00 0.00 64 1012.4
20260904235456 83 8 2.6 4.3 0.00 0.00 0.00 64 1012.4
20260904235354 83 10 2.6 4.3 0.00 0.00 0.00 64 1012.4
20260904235251 83 11 1.7 4.3 0.00 0.00 0.00 64 1012.4
20260904235128 83 8 2.6 4.3 0.00 0.00 0.00 65 1012.4
20260904235048 83 10 1.7 4.3 0.00 0.00 0.00 65 1012.4
20260904234926 83 7 1.7 4.3 0.00 0.00 0.00 65 1012.4
20260904234825 83 10 2.6 4.3 0.00 0.00 0.00 65 1012.4
20260904234727 83 10 2.6 5.2 0.00 0.00 0.00 64 1012.4
20260904234656 83 7 1.7 5.2 0.00 0.00 0.00 64 1012.4
20260904234558 83 13 2.6 5.2 0.00 0.00 0.00 64 1012.4
20260904234438 83 11 2.6 5.2 0.00 0.00 0.00 64 1012.4
20260904234336 83 14 1.7 7.0 0.00 0.00 0.00 63 1012.4
20260904234235 83 10 2.6 7.0 0.00 0.00 0.00 64 1012.3
20260904234134 83 14 2.6 7.0 0.00 0.00 0.00 64 1012.3
20260904234036 83 16 2.6 7.0 0.00 0.00 0.00 64 1012.3
20260904233954 83 14 3.5 7.0 0.00 0.00 0.00 64 1012.3
20260904233831 83 10 3.5 7.0 0.00 0.00 0.00 64 1012.3
20260904233729 83 11 2.6 7.0 0.00 0.00 0.00 64 1012.3
20260904233629 83 10 2.6 7.0 0.00 0.00 0.00 64 1012.3
20260904233527 83 13 4.3 7.0 0.00 0.00 0.00 64 1012.3
20260904233447 84 14 2.6 7.0 0.00 0.00 0.00 64 1012.3
20260904233345 84 17 3.5 7.0 0.00 0.00 0.00 64 1012.3
20260904233239 84 16 3.5 7.0 0.00 0.00 0.00 64 1012.3
20260904233148 84 18 3.5 7.0 0.00 0.00 0.00 64 1012.3
20260904233025 84 21 4.3 7.0 0.00 0.00 0.00 64 1012.3
20260904232942 84 21 4.3 7.0 0.00 0.00 0.00 64 1012.3
20260904232841 84 23 4.3 7.0 0.00 0.00 0.00 63 1012.3
20260904232739 84 23 6.1 7.0 0.00 0.00 0.00 63 1012.2
20260904232637 84 31 6.1 7.0 0.00 0.00 0.00 63 1012.2
20260904232536 84 4 4.3 7.0 0.00 0.00 0.00 63 1012.2
20260904232459 84 360 3.5 7.0 0.00 0.00 0.00 63 1012.2
20260904232356 84 14 4.3 7.0 0.00 0.00 0.00 63 1012.2
20260904232233 84 1 5.2 7.0 0.00 0.00 0.00 63 1012.2
20260904232132 84 325 5.2 7.0 0.00 0.00 0.00 63 1012.2
20260904232030 84 353 5.2 7.0 0.00 0.00 0.00 62 1012.2
20260904231929 84 325 5.2 7.0 0.00 0.00 0.00 62 1012.2
20260904231828 85 350 3.5 7.0 0.00 0.00 0.00 62 1012.2
20260904231743 85 346 4.3 7.0 0.00 0.00 0.00 62 1012.2
20260904231651 85 360 4.3 7.0 0.00 0.00 0.00 62 1012.2
20260904231530 85 360 5.2 7.0 0.00 0.00 0.00 62 1012.2
20260904231449 85 1 2.6 7.0 0.00 0.00 0.00 62 1012.2
20260904231326 85 3 5.2 8.7 0.00 0.00 0.00 62 1012.2
20260904231243 85 4 4.3 8.7 0.00 0.00 0.00 63 1012.3
20260904231140 85 360 3.5 8.7 0.00 0.00 0.00 63 1012.3
20260904231039 85 3 2.6 9.6 0.00 0.00 0.00 63 1012.3
20260904230941 85 4 2.6 9.6 0.00 0.00 0.00 63 1012.3
20260904230859 85 3 2.6 9.6 0.00 0.00 0.00 62 1012.3
20260904230756 85 4 3.5 9.6 0.00 0.00 0.00 62 1012.3
20260904230635 85 6 4.3 9.6 0.00 0.00 0.00 62 1012.3
20260904230534 85 35 6.1 9.6 0.00 0.00 0.00 62 1012.3
20260904230433 85 360 5.2 9.6 0.00 0.00 0.00 62 1012.3
20260904230330 85 360 6.1 9.6 0.00 0.00 0.00 62 1012.3
20260904230300 85 360 6.1 9.6 0.00 0.00 0.00 62 1012.3
20260904230149 85 326 5.2 9.6 0.00 0.00 0.00 62 1012.3
20260904230029 85 346 1.7 5.2 0.00 0.00 0.00 62 1012.3
20260904225927 85 346 3.5 5.2 0.00 0.00 0.00 62 1012.3
20260904225824 85 342 3.5 5.2 0.00 0.00 0.00 62 1012.3
20260904225743 85 343 3.5 5.2 0.00 0.00 0.00 62 1011.8
20260904225642 85 340 1.7 4.3 0.00 0.00 0.00 61 1011.8
20260904225540 85 342 1.7 4.3 0.00 0.00 0.00 61 1011.8
20260904225437 85 342 2.6 4.3 0.00 0.00 0.00 61 1011.8
20260904225339 85 336 1.7 5.2 0.00 0.00 0.00 61 1011.8
20260904225238 85 336 1.7 6.1 0.00 0.00 0.00 61 1011.8
20260904225136 85 336 2.6 6.1 0.00 0.00 0.00 61 1011.8
20260904225032 85 336 2.6 6.1 0.00 0.00 0.00 61 1011.8
20260904224930 85 335 2.6 6.1 0.00 0.00 0.00 60 1011.8
20260904224827 85 336 2.6 6.1 0.00 0.00 0.00 60 1011.8
20260904224736 85 332 1.7 6.1 0.00 0.00 0.00 60 1011.8
20260904224645 85 333 0.9 6.1 0.00 0.00 0.00 62 1011.8
20260904224528 86 330 1.7 6.1 0.00 0.00 0.00 62 1011.8
20260904224425 86 322 4.3 6.1 0.00 0.00 0.00 61 1011.8
20260904224324 86 37 1.7 4.3 0.00 0.00 0.00 61 1011.8
20260904224242 86 37 0.9 4.3 0.00 0.00 0.00 62 1012.1
20260904224140 86 35 0.0 4.3 0.00 0.00 0.00 62 1012.1
20260904224040 86 35 0.0 4.3 0.00 0.00 0.00 62 1012.1
20260904223940 86 35 0.9 4.3 0.00 0.00 0.00 62 1012.1
20260904223858 86 38 0.9 4.3 0.00 0.00 0.00 62 1012.1
20260904223740 86 37 0.9 4.3 0.00 0.00 0.00 62 1012.1
20260904223638 86 37 2.6 4.3 0.00 0.00 0.00 62 1012.1
20260904223536 86 35 2.6 4.3 0.00 0.00 0.00 62 1012.1
20260904223433 85 35 1.7 4.3 0.00 0.00 0.00 61 1012.1
20260904223331 85 37 1.7 4.3 0.00 0.00 0.00 61 1012.1
20260904223250 85 38 1.7 4.3 0.00 0.00 0.00 62 1012.1
20260904223159 85 37 1.7 4.3 0.00 0.00 0.00 62 1012.1
20260904223039 85 35 1.7 4.3 0.00 0.00 0.00 63 1012.1
20260904222942 85 37 1.7 4.3 0.00 0.00 0.00 63 1012.1
20260904222902 85 37 1.7 4.3 0.00 0.00 0.00 62 1012.1
20260904222740 85 37 1.7 4.3 0.00 0.00 0.00 62 1012.0
20260904222638 85 37 1.7 4.3 0.00 0.00 0.00 62 1012.0
20260904222557 85 37 2.6 4.3 0.00 0.00 0.00 62 1012.0
20260904222434 85 37 2.6 4.3 0.00 0.00 0.00 62 1012.0
20260904222336 85 38 1.7 2.6 0.00 0.00 0.00 62 1012.0
20260904222238 85 35 1.7 2.6 0.00 0.00 0.00 62 1012.0
20260904222138 85 37 1.7 2.6 0.00 0.00 0.00 62 1012.0
20260904222035 85 37 1.7 2.6 0.00 0.00 0.00 62 1012.0
20260904221933 85 35 1.7 2.6 0.00 0.00 0.00 61 1012.0
20260904221832 85 32 0.9 2.6 0.00 0.00 0.00 61 1012.0
20260904221742 85 37 1.7 2.6 0.00 0.00 0.00 61 1012.0
20260904221651 85 37 0.9 2.6 0.00 0.00 0.00 61 1012.0
20260904221532 85 37 0.0 1.7 0.00 0.00 0.00 61 1012.0
20260904221451 85 34 0.0 0.9 0.00 0.00 0.00 62 1012.0
20260904221327 85 38 0.0 0.0 0.00 0.00 0.00 62 1012.0
20260904221245 85 38 0.0 0.0 0.00 0.00 0.00 62 1012.0
20260904221143 85 35 0.0 0.0 0.00 0.00 0.00 61 1012.0
20260904221042 84 34 0.0 0.0 0.00 0.00 0.00 63 1012.0
20260904220921 84 37 0.0 1.7 0.00 0.00 0.00 63 1012.0
20260904220843 84 37 0.0 1.7 0.00 0.00 0.00 65 1012.0
20260904220724 84 34 0.0 1.7 0.00 0.00 0.00 65 1012.0
20260904220626 84 37 0.0 1.7 0.00 0.00 0.00 65 1012.0
20260904220544 84 37 0.0 1.7 0.00 0.00 0.00 64 1012.0
20260904220503 84 37 0.0 2.6 0.00 0.00 0.00 64 1012.0
20260904220340 84 37 0.0 2.6 0.00 0.00 0.00 64 1012.0
20260904220238 84 37 0.0 2.6 0.00 0.00 0.00 63 1012.0
20260904220209 84 34 0.9 2.6 0.00 0.00 0.00 63 1012.0
20260904220045 84 37 0.9 2.6 0.00 0.00 0.00 63 1012.0
20260904215941 84 37 0.9 2.6 0.00 0.00 0.00 63 1012.0
20260904215824 84 38 1.7 2.6 0.00 0.00 0.00 63 1012.0
20260904215743 84 37 1.7 2.6 0.00 0.00 0.00 63 1011.8
20260904215641 84 35 1.7 2.6 0.00 0.00 0.00 63 1011.8
20260904215541 84 37 1.7 2.6 0.00 0.00 0.00 63 1011.8
20260904215439 84 35 1.7 2.6 0.00 0.00 0.00 63 1011.8
20260904215338 84 37 1.7 2.6 0.00 0.00 0.00 63 1011.8
20260904215237 84 35 1.7 2.6 0.00 0.00 0.00 63 1011.8
20260904215140 84 37 1.7 2.6 0.00 0.00 0.00 63 1011.8
20260904215039 84 35 0.9 2.6 0.00 0.00 0.00 64 1011.8
20260904214937 84 38 0.9 2.6 0.00 0.00 0.00 63 1011.8
20260904214835 84 38 0.9 2.6 0.00 0.00 0.00 63 1011.8
20260904214734 84 38 1.7 2.6 0.00 0.00 0.00 64 1011.8
20260904214703 84 37 1.7 4.3 0.00 0.00 0.00 64 1011.8
20260904214601 84 38 1.7 4.3 0.00 0.00 0.00 64 1011.8
20260904214424 84 37 1.7 4.3 0.00 0.00 0.00 64 1011.8
20260904214325 84 37 1.7 5.2 0.00 0.00 0.00 64 1011.8
20260904214244 84 38 1.7 5.2 0.00 0.00 0.00 63 1011.8
20260904214141 84 37 1.7 5.2 0.00 0.00 0.00 63 1011.8
20260904214040 84 37 1.7 5.2 0.00 0.00 0.00 63 1011.8
20260904213938 84 38 1.7 5.2 0.00 0.00 0.00 63 1011.8
20260904213838 84 37 2.6 5.2 0.00 0.00 0.00 63 1011.8
20260904213739 84 32 2.6 5.2 0.00 0.00 0.00 63 1011.8
20260904213637 84 37 3.5 5.2 0.00 0.00 0.00 63 1011.8
20260904213536 84 38 3.5 5.2 0.00 0.00 0.00 62 1011.8
20260904213435 84 37 3.5 5.2 0.00 0.00 0.00 63 1011.8
20260904213332 84 35 3.5 5.2 0.00 0.00 0.00 63 1011.8
20260904213241 84 34 4.3 5.2 0.00 0.00 0.00 63 1011.8
20260904213152 84 35 4.3 5.2 0.00 0.00 0.00 63 1011.8
20260904213033 84 37 3.5 5.2 0.00 0.00 0.00 63 1011.8
20260904212930 84 35 2.6 5.2 0.00 0.00 0.00 63 1011.8
20260904212830 84 37 4.3 5.2 0.00 0.00 0.00 63 1011.8
20260904212749 84 35 3.5 4.3 0.00 0.00 0.00 63 1011.9
20260904212646 84 34 3.5 4.3 0.00 0.00 0.00 62 1011.9
20260904212604 84 35 3.5 4.3 0.00 0.00 0.00 63 1011.9
20260904212441 84 31 2.6 3.5 0.00 0.00 0.00 63 1011.9
20260904212338 84 35 2.6 2.6 0.00 0.00 0.00 63 1011.9
20260904212241 84 34 2.6 2.6 0.00 0.00 0.00 63 1011.9
20260904212139 84 37 1.7 2.6 0.00 0.00 0.00 63 1011.9
20260904212058 84 32 1.7 2.6 0.00 0.00 0.00 63 1011.9
20260904211936 84 34 1.7 2.6 0.00 0.00 0.00 62 1011.9
20260904211833 84 35 0.9 2.6 0.00 0.00 0.00 62 1011.9
20260904211744 84 34 1.7 2.6 0.00 0.00 0.00 62 1011.9
20260904211652 84 31 1.7 2.6 0.00 0.00 0.00 62 1011.9
20260904211530 84 34 2.6 2.6 0.00 0.00 0.00 62 1011.9
20260904211432 84 34 2.6 2.6 0.00 0.00 0.00 61 1011.9
20260904211330 84 30 2.6 2.6 0.00 0.00 0.00 61 1011.9
20260904211248 84 35 1.7 2.6 0.00 0.00 0.00 61 1011.8
20260904211145 84 34 1.7 2.6 0.00 0.00 0.00 60 1011.8
20260904211104 85 35 1.7 2.6 0.00 0.00 0.00 60 1011.8
20260904211002 85 35 1.7 2.6 0.00 0.00 0.00 60 1011.8
20260904210840 85 34 1.7 2.6 0.00 0.00 0.00 60 1011.8
20260904210737 85 34 1.7 2.6 0.00 0.00 0.00 61 1011.8
20260904210639 85 34 1.7 2.6 0.00 0.00 0.00 59 1011.8
20260904210538 85 31 1.7 2.6 0.00 0.00 0.00 60 1011.8
20260904210437 85 32 0.9 4.3 0.00 0.00 0.00 59 1011.8
20260904210334 85 34 0.9 4.3 0.00 0.00 0.00 60 1011.8
20260904210233 85 35 1.7 5.2 0.00 0.00 0.00 60 1011.8
20260904210203 85 35 1.7 5.2 0.00 0.00 0.00 60 1011.8
20260904210040 85 35 1.7 5.2 0.00 0.00 0.00 61 1011.8
20260904205942 85 34 1.7 5.2 0.00 0.00 0.00 61 1011.8
20260904205840 85 35 1.7 5.2 0.00 0.00 0.00 61 1011.8
20260904205758 85 32 2.6 5.2 0.00 0.00 0.00 61 1011.9
20260904205635 85 34 2.6 5.2 0.00 0.00 0.00 60 1011.9
20260904205534 85 32 2.6 5.2 0.00 0.00 0.00 61 1011.9
20260904205432 85 34 3.5 5.2 0.00 0.00 0.00 63 1011.9
20260904205331 85 32 3.5 5.2 0.00 0.00 0.00 62 1011.9
20260904205234 85 31 3.5 5.2 0.00 0.00 0.00 62 1011.9
20260904205135 85 31 4.3 5.2 0.00 0.00 0.00 61 1011.9
20260904205053 85 38 4.3 5.2 0.00 0.00 0.00 61 1011.9
20260904204930 85 42 3.5 5.2 0.00 0.00 0.00 61 1011.9
20260904204828 85 47 2.6 4.3 0.00 0.00 0.00 61 1011.9
20260904204746 85 45 1.7 4.3 0.00 0.00 0.00 61 1011.9
20260904204654 85 47 2.6 4.3 0.00 0.00 0.00 61 1011.9
20260904204533 85 45 1.7 4.3 0.00 0.00 0.00 60 1011.9
20260904204451 85 45 2.6 4.3 0.00 0.00 0.00 61 1011.9
20260904204332 85 45 2.6 6.1 0.00 0.00 0.00 60 1011.9
20260904204231 85 45 3.5 6.1 0.00 0.00 0.00 59 1012.2
20260904204148 85 47 3.5 6.1 0.00 0.00 0.00 60 1012.2
20260904204024 85 44 2.6 6.1 0.00 0.00 0.00 60 1012.2
20260904203944 85 44 2.6 6.1 0.00 0.00 0.00 60 1012.2
20260904203841 85 44 1.7 6.1 0.00 0.00 0.00 60 1012.2
20260904203740 85 42 2.6 6.1 0.00 0.00 0.00 60 1012.2
20260904203638 85 47 3.5 6.1 0.00 0.00 0.00 59 1012.2
20260904203541 85 45 4.3 7.8 0.00 0.00 0.00 60 1012.2
20260904203439 85 45 4.3 7.8 0.00 0.00 0.00 59 1012.2
20260904203358 85 45 3.5 7.8 0.00 0.00 0.00 58 1012.2
20260904203235 85 44 3.5 7.8 0.00 0.00 0.00 58 1012.2
20260904203206 85 44 4.3 7.8 0.00 0.00 0.00 58 1012.2
20260904203041 86 47 4.3 7.8 0.00 0.00 0.00 57 1012.2
20260904203001 86 45 4.3 7.8 0.00 0.00 0.00 58 1012.2
20260904202839 86 44 4.3 7.8 0.00 0.00 0.00 58 1012.2
20260904202742 86 45 5.2 7.8 0.00 0.00 0.00 57 1013.4
20260904202640 86 48 6.1 7.8 0.00 0.00 0.00 58 1013.4
20260904202538 86 48 6.1 7.0 0.00 0.00 0.00 58 1013.4
20260904202436 86 48 5.2 7.0 0.00 0.00 0.00 57 1013.4
20260904202335 86 49 5.2 7.0 0.00 0.00 0.00 58 1013.4
20260904202234 86 48 6.1 7.0 0.00 0.00 0.00 58 1013.4
20260904202151 86 51 6.1 7.0 0.00 0.00 0.00 58 1013.4
20260904202049 86 49 5.2 7.0 0.00 0.00 0.00 56 1013.4